GFSFLT2_con_mucape_000.txt.gz
CAPE
660 722 905 1094 1070 1168 1318 1541 1378 1218 1193 1122 1114 958 681 450 303 161 123 76 44 10 25 26 49 62 65 166 282 282 1009 880
696 895 835 980 884 624 811 1074 1197 935 773 557 574 577 261 51 0 24 19 0 0 0 0 0 0 0 0 0 23 137 614 564
966 943 947 901 641 626 343 622 920 864 684 412 410 618 563 194 0 0 0 0 0 0 0 0 0 0 0 0 0 84 148 181
1286 1353 1154 912 303 755 709 639 804 1110 1129 1194 874 1005 897 331 105 0 0 0 0 0 0 0 0 0 0 0 0 0 8 25
1386 1598 1508 1144 359 628 419 352 533 822 1417 1540 1202 1172 875 654 501 158 170 0 25 0 0 0 0 0 0 0 0 0 0 0
1677 1602 1722 1673 770 456 488 474 423 587 800 1471 1246 945 789 641 282 83 30 26 87 2 3 2 0 0 0 0 0 0 0 0
2077 2054 1879 1357 1573 794 936 870 442 641 693 613 1079 664 492 255 60 0 0 22 38 52 9 0 0 0 0 0 0 0 0 0
2349 2264 1736 835 785 990 629 372 247 234 144 119 483 652 176 9 0 0 0 0 1 23 1 0 0 0 0 0 0 0 0 0
2146 1874 647 608 352 236 50 8 21 9 10 25 67 101 29 26 0 0 0 0 27 64 6 0 0 0 0 0 0 0 0 0
1572 785 180 153 67 71 32 23 40 39 36 31 34 53 63 55 22 11 17 39 22 45 31 0 0 0 0 0 0 0 0 0
1207 508 0 16 82 87 91 100 64 0 8 0 7 27 44 88 47 41 82 76 55 58 41 3 0 0 0 0 0 0 0 0
838 93 21 94 85 46 4 1 0 0 0 0 0 0 0 11 19 44 88 94 64 37 54 38 6 0 0 0 0 0 0 0
329 75 0 0 0 0 0 0 0 0 0 0 0 0 0 0 4 25 50 71 87 123 106 101 64 28 4 0 0 0 0 0
3 0 0 0 0 0 0 0 0 0 0 0 0 0 0 0 0 0 0 0 16 41 90 105 129 93 37 10 9 18 21 0
0 0 0 0 0 0 0 0 0 0 0 0 0 0 0 0 0 0 0 0 0 0 9 25 56 112 196 88 52 57 101 70
0 0 0 0 0 0 0 0 0 0 1 0 0 0 0 0 0 0 0 0 0 0 0 1 15 18 101 152 174 128 115 95
0 0 0 0 0 0 0 0 0 0 0 0 0 0 0 0 0 0 0 0 0 0 0 0 3 27 45 73 65 89 61 42
0 0 0 0 0 0 0 0 0 0 0 0 0 0 0 0 0 0 0 0 0 0 1 4 8 13 10 11 9 1 4 12
0 0 0 0 0 0 0 0 0 0 0 0 0 0 0 0 0 0 0 0 1 5 13 19 0 0 0 0 0 0 6 11
1 9 6 1 0 0 0 0 0 0 0 0 0 0 0 0 0 2 10 20 45 53 20 0 5 3 0 0 0 1 22 25

GFSFLT2_con_mucape_006.txt.gz
CAPE
285 490 702 889 896 1011 1029 1050 1005 844 798 766 637 485 333 172 88 29 0 0 0 0 0 0 0 0 2 36 48 131 74 216
434 472 441 434 510 743 935 945 822 696 555 507 554 409 292 153 113 2 0 0 0 0 0 0 0 0 0 0 0 0 106 91
557 482 618 884 383 445 713 850 776 639 606 427 354 489 321 190 30 18 0 0 0 0 0 0 0 0 0 0 0 0 0 0
1119 831 750 244 47 300 780 473 656 747 751 778 782 672 561 191 224 113 81 20 1 0 0 0 0 0 0 0 0 0 0 0
1309 1395 1039 624 390 399 401 398 427 1020 1147 729 814 580 706 623 565 360 149 80 136 0 1 0 0 0 0 0 0 0 0 0
1394 1251 1127 743 754 403 548 506 313 482 495 695 698 540 563 243 122 0 0 1 0 5 0 0 0 0 0 0 0 0 0 0
1037 1108 1064 1310 636 1191 1048 731 656 468 576 489 377 322 377 236 80 18 5 0 0 0 0 0 0 0 0 0 0 0 0 0
1399 1253 984 676 785 790 1104 666 588 657 183 37 125 174 213 159 58 56 23 15 13 1 0 0 0 0 0 0 0 0 0 0
1267 1208 607 475 587 638 573 28 3 65 63 53 52 84 106 158 102 89 95 113 79 47 61 19 26 3 0 0 0 0 0 0
425 1047 651 346 517 48 74 116 103 73 134 123 52 62 92 141 130 147 162 239 125 123 95 63 41 24 23 3 0 0 0 0
931 652 364 134 249 91 79 87 80 53 10 66 24 14 115 95 81 140 187 157 130 166 128 121 137 120 110 57 16 35 18 0
872 583 9 21 157 103 14 15 26 52 40 6 0 23 8 29 14 72 209 147 80 120 199 95 89 85 82 64 59 37 15 32
179 262 150 73 95 6 0 0 0 6 3 0 0 2 0 0 0 0 0 0 2 13 2 0 2 51 47 44 22 21 116 89
128 62 44 46 25 3 0 0 0 0 6 0 0 0 0 0 0 0 0 0 0 0 17 0 0 0 18 15 0 0 0 4
72 49 53 62 43 3 0 0 0 0 0 0 0 0 0 0 0 0 0 0 0 0 0 0 0 0 0 0 3 0 0 0
11 4 1 3 2 0 0 0 0 0 0 0 0 0 0 0 0 0 0 0 0 0 0 0 0 0 0 0 0 0 0 0
0 0 0 0 0 0 0 0 0 0 0 0 0 0 0 0 0 0 0 0 0 4 4 11 1 2 1 0 2 7 8 1
0 0 0 0 0 0 1 0 0 0 0 0 0 0 0 0 0 0 1 8 13 28 16 18 16 12 14 7 2 0 0 0
0 0 0 0 6 1 0 1 0 0 0 0 0 0 0 0 0 1 9 27 32 22 24 13 10 2 1 2 2 0 0 0
10 0 0 0 0 0 1 0 0 0 0 0 0 0 0 0 2 1 2 0 0 0 3 24 19 17 12 7 2 0 0 0

GFSFLT2_con_mucape_009.txt.gz
CAPE
463 516 572 517 554 558 595 696 710 734 718 756 560 396 319 212 78 0 0 0 0 0 0 0 0 0 0 0 0 0 11 56
134 112 145 155 352 429 461 488 419 322 397 477 337 268 190 248 88 36 0 0 0 0 0 0 0 0 0 0 0 0 0 0
190 231 355 40 73 364 454 522 428 282 314 299 278 261 163 99 102 77 8 0 0 0 0 0 0 0 0 0 0 0 0 0
230 289 437 69 20 100 98 206 346 334 449 381 400 304 367 139 149 116 23 16 16 12 1 0 0 0 0 0 0 0 0 0
383 63 37 102 97 129 188 228 361 484 465 182 263 120 329 101 231 126 49 49 20 33 0 0 0 0 0 0 0 0 0 0
478 255 78 38 7 85 177 171 163 554 343 323 150 82 27 8 0 0 0 22 51 29 0 0 0 0 0 0 0 0 0 0
635 228 172 118 291 187 193 160 106 71 166 43 21 50 1 0 0 0 0 0 0 0 0 0 0 0 0 0 0 0 0 0
617 364 405 200 346 348 258 167 38 132 3 2 2 0 13 4 0 1 0 8 17 0 0 0 1 0 0 0 0 0 0 0
328 509 570 288 379 300 362 115 0 0 0 0 0 0 0 0 9 4 3 14 44 34 27 22 10 0 0 3 3 0 0 0
385 178 445 173 249 119 8 2 0 3 1 0 0 0 0 0 0 0 0 4 10 8 25 51 48 33 10 21 4 0 0 0
454 217 435 220 122 17 14 18 4 2 0 0 0 0 0 0 0 0 0 0 0 0 0 0 0 0 0 0 0 0 0 0
313 329 192 66 21 64 26 33 0 0 0 0 0 0 1 0 0 0 0 0 0 0 0 0 0 0 0 0 0 0 0 0
229 83 42 51 111 68 38 31 3 0 0 0 11 14 0 0 0 0 0 0 0 0 0 0 0 0 0 0 0 0 0 0
83 66 53 49 51 45 37 21 5 1 0 0 0 0 0 0 0 0 0 0 0 0 0 0 0 0 0 0 0 0 0 0
114 92 57 44 43 38 20 21 2 0 0 0 0 0 0 0 0 0 0 0 0 0 0 0 0 0 0 0 0 0 0 0
0 1 4 0 0 0 0 0 0 0 0 0 0 0 0 0 0 0 0 0 0 0 0 0 0 0 0 2 12 16 0 0
0 0 0 0 0 0 0 0 0 0 0 0 0 0 0 0 0 0 0 0 0 0 0 0 0 6 17 18 20 3 4 3
0 0 0 0 0 0 0 0 0 0 0 0 0 0 2 2 0 0 0 0 0 0 1 5 14 18 21 3 2 2 0 0
0 0 0 0 0 0 0 0 3 7 9 7 0 6 8 0 0 0 0 0 0 1 9 13 12 22 18 6 5 1 1 0
0 0 0 0 0 0 0 0 3 14 5 3 1 0 0 0 0 0 0 0 0 0 3 4 21 14 7 4 0 0 2 19

GFSFLT2_con_mucape_012.txt.gz
CAPE
613 634 667 561 501 492 605 786 750 788 808 667 443 284 253 100 32 0 0 0 0 0 0 0 0 0 0 0 0 0 0 0
277 296 243 251 298 354 383 380 353 497 523 360 229 122 197 217 103 53 0 0 0 0 0 0 0 0 0 0 0 0 0 0
52 53 25 92 140 257 379 355 240 184 289 252 181 157 51 55 57 41 13 0 0 0 2 0 0 0 0 0 0 0 0 0
183 127 8 5 51 196 92 134 185 201 222 287 249 205 254 125 119 92 100 5 24 43 53 43 5 0 0 0 0 0 0 0
229 223 34 7 28 15 118 164 242 268 409 414 290 249 292 307 159 51 22 0 18 15 23 0 0 0 0 0 0 0 0 0
261 378 116 40 77 37 104 181 344 450 466 299 39 21 8 0 0 0 0 0 0 0 0 0 0 0 0 0 0 0 0 0
233 91 80 49 110 162 211 206 344 531 262 54 18 13 0 0 0 0 0 0 0 0 0 0 0 0 0 0 0 0 0 0
458 141 142 219 231 211 220 148 126 117 81 17 0 1 0 0 0 0 0 0 0 0 0 0 0 0 0 0 0 0 0 2
532 295 292 100 349 339 134 74 65 72 6 19 5 0 0 0 0 0 0 0 0 0 0 0 0 0 0 0 0 0 0 0
387 82 241 342 403 286 317 35 0 0 4 8 4 3 2 0 0 0 0 0 0 0 0 0 0 0 0 0 0 0 0 0
425 61 245 155 229 102 14 10 11 7 0 0 2 17 25 20 5 3 0 0 0 0 0 0 0 0 0 0 0 0 0 0
401 354 208 84 186 40 14 21 27 16 0 0 0 4 17 24 27 19 0 0 0 0 0 0 0 0 0 0 0 0 0 0
301 227 90 35 50 38 38 55 29 11 3 7 1 8 0 0 0 0 0 0 0 0 0 0 0 0 0 0 0 0 0 0
67 95 78 50 38 37 56 43 32 20 15 10 0 0 0 0 0 0 0 0 0 0 0 0 0 0 0 0 0 0 0 0
0 0 0 22 41 48 68 45 5 9 0 0 2 0 0 0 0 0 0 0 0 0 0 0 0 0 0 0 0 0 0 0
0 0 0 0 0 0 0 0 0 0 0 0 0 0 0 0 0 2 4 2 0 0 0 0 0 0 0 8 14 18 0 0
0 0 0 0 0 0 0 0 0 0 0 0 0 2 4 9 10 10 7 0 0 0 0 0 0 5 9 9 7 7 2 0
0 0 0 0 0 0 0 0 0 0 4 5 10 3 4 8 0 0 0 0 0 0 0 0 4 22 29 16 10 15 4 2
0 0 0 0 0 0 0 0 0 9 10 25 45 13 9 3 0 0 0 0 0 0 0 0 0 4 8 3 20 11 0 0
0 0 0 0 0 0 0 7 17 31 14 15 7 1 0 0 0 0 0 0 0 0 0 0 1 0 0 0 1 14 27 25

GFSFLT2_con_mucape_015.txt.gz
CAPE
902 939 877 809 668 623 575 624 705 749 731 603 433 292 200 111 56 0 0 0 0 0 0 0 0 0 0 0 0 0 0 0
613 551 454 329 312 353 414 439 447 558 555 338 103 57 89 124 47 31 0 0 0 0 0 0 0 0 0 0 0 0 0 0
192 204 128 73 71 142 318 350 312 351 300 158 78 18 37 73 55 32 56 5 6 24 64 47 20 0 0 0 0 0 0 0
23 14 11 11 56 82 30 85 48 152 219 155 174 155 174 95 65 95 143 173 130 128 157 119 82 3 0 0 0 0 0 0
6 0 0 1 2 13 6 82 98 175 238 262 251 242 209 201 163 34 10 2 0 4 2 13 0 0 0 0 0 0 0 0
81 15 0 0 15 22 67 102 194 261 342 259 79 48 4 0 0 0 0 0 0 0 0 0 0 0 0 0 0 0 0 0
216 162 34 6 86 60 112 172 344 417 380 241 48 13 0 0 0 0 0 0 0 0 0 0 0 0 0 0 0 0 0 0
355 322 102 59 78 111 106 226 304 532 336 70 0 2 0 0 0 0 0 0 0 0 0 0 0 0 0 0 0 0 0 0
366 322 62 49 178 180 220 212 133 260 179 1 0 0 0 0 0 0 0 0 0 0 0 0 0 0 0 0 0 0 0 0
303 124 48 211 200 225 134 78 42 83 36 0 1 4 12 0 0 0 0 0 0 2 0 0 0 0 0 0 0 0 0 0
187 149 3 141 180 110 97 53 10 12 0 4 10 28 20 25 6 3 5 1 0 0 0 0 0 0 0 0 0 0 0 0
166 91 91 36 28 10 69 42 15 22 14 25 12 18 4 5 24 1 0 0 0 0 0 0 0 0 0 0 0 0 0 0
209 149 79 56 12 47 41 40 57 45 35 34 0 34 18 0 0 0 0 0 0 0 0 0 0 0 0 0 0 0 0 0
121 114 77 75 93 66 56 44 32 25 8 25 5 0 0 0 0 0 0 0 0 0 0 0 0 0 0 0 0 0 0 0
7 15 56 92 75 41 23 19 2 0 0 0 0 0 0 0 0 0 0 0 0 0 0 0 0 0 0 0 0 0 0 0
0 0 0 0 0 0 0 0 0 0 0 0 0 0 0 1 4 4 0 1 8 7 0 0 0 0 0 0 3 10 0 0
0 0 0 0 0 0 0 0 0 0 0 1 6 10 6 14 0 5 21 0 0 0 0 0 0 0 0 0 0 1 2 0
0 0 0 0 0 0 0 0 0 1 5 3 7 3 3 0 0 0 0 0 0 0 0 0 0 0 0 0 0 0 1 3
0 0 0 0 0 0 0 0 0 0 1 1 4 0 0 0 0 0 0 0 0 0 0 0 0 0 0 0 1 6 14 28
0 0 0 0 0 0 0 0 0 0 0 0 0 0 0 0 0 0 1 1 0 0 0 0 0 0 0 1 4 10 28 6

GFSFLT2_con_mucape_018.txt.gz
CAPE
715 771 810 861 842 773 657 686 722 718 652 566 410 231 132 80 29 0 0 0 6 18 8 15 4 8 15 0 0 0 0 0
1064 784 788 695 589 523 425 459 516 562 569 415 150 85 44 34 4 22 4 13 52 54 121 97 60 40 21 1 0 0 0 0
839 784 564 289 157 243 395 425 402 430 421 205 16 1 3 11 10 9 78 140 100 150 210 145 93 19 6 38 0 0 0 0
421 258 72 6 25 100 66 98 105 131 126 116 91 80 89 25 29 37 100 84 59 43 16 5 0 0 0 0 0 0 0 0
24 3 0 0 0 2 0 11 137 179 247 219 208 180 162 163 119 1 0 0 0 0 0 0 0 0 0 0 0 0 0 0
0 0 0 0 0 0 6 40 99 269 336 339 234 130 20 26 0 0 0 0 0 0 0 0 0 0 0 0 0 0 0 0
0 0 0 0 0 2 38 145 224 372 403 323 112 42 3 0 0 0 0 0 0 0 0 0 0 0 0 0 0 0 0 0
114 18 0 1 11 34 72 164 365 517 533 359 117 30 9 0 0 0 0 0 0 0 0 0 0 0 0 0 0 0 0 0
283 178 50 8 23 88 107 157 227 460 608 282 41 11 8 0 4 0 0 0 0 0 0 0 0 0 0 0 0 0 0 0
326 280 257 37 43 107 98 116 70 163 229 67 17 5 12 21 27 19 19 6 11 0 0 0 0 0 0 0 0 0 0 0
372 75 68 16 84 111 34 0 54 13 12 32 32 20 8 12 22 20 10 3 2 0 0 0 0 0 0 0 0 0 0 0
308 140 66 53 118 87 33 44 16 14 29 44 42 3 4 6 3 8 0 0 0 0 0 0 0 0 0 0 0 0 0 0
226 140 115 78 32 56 10 20 35 13 0 3 0 0 0 0 0 0 0 0 0 0 0 0 0 0 0 0 0 0 0 0
131 86 54 45 56 16 4 7 0 0 0 0 0 0 0 0 0 0 0 0 0 0 4 1 0 0 0 0 0 0 0 0
54 7 5 8 0 0 0 0 0 0 0 0 0 0 0 0 0 0 1 0 0 1 0 0 0 0 0 0 0 0 0 0
0 0 0 0 0 0 0 0 0 0 0 0 0 0 0 0 2 3 2 0 0 0 0 0 0 0 0 0 0 0 0 0
0 0 0 0 0 0 0 0 0 0 0 0 0 1 2 3 0 0 0 0 0 0 0 0 0 0 0 0 0 0 0 0
0 0 0 0 0 0 0 0 0 0 0 0 1 0 0 0 0 0 0 0 0 0 0 0 0 0 0 0 0 0 0 0
0 0 0 0 0 0 0 0 0 0 0 0 0 0 0 0 0 0 6 12 4 2 1 1 0 0 0 0 0 0 0 0
0 0 0 0 2 0 0 0 0 0 0 0 0 0 0 0 0 1 6 0 3 0 0 0 0 0 0 0 0 4 9 1

GFSFLT2_con_mucape_021.txt.gz
CAPE
1131 1177 1086 1026 1033 867 652 740 716 669 623 539 372 190 147 120 95 12 0 115 76 39 15 40 39 30 19 0 0 0 0 0
807 1008 1000 1084 1034 733 587 560 541 520 516 330 126 63 78 77 0 85 103 76 78 114 165 113 44 14 0 0 0 0 0 0
1069 805 869 785 745 638 451 497 461 435 412 119 32 80 118 125 28 75 137 161 139 113 72 48 0 0 0 0 0 0 0 0
1105 782 670 360 284 448 365 294 285 345 345 361 155 169 142 88 67 31 29 0 0 0 0 0 0 0 0 0 0 0 0 0
693 507 240 150 137 204 96 153 194 242 319 326 318 293 344 356 253 12 0 0 0 0 0 0 0 0 0 0 0 0 0 0
243 110 56 2 2 28 32 110 203 363 483 536 540 351 185 163 0 0 0 0 0 0 0 0 0 0 0 0 0 0 0 0
63 0 0 0 1 29 46 117 292 410 444 352 126 35 4 0 0 0 0 0 0 0 0 0 0 0 0 0 0 0 0 0
35 0 0 6 30 15 66 118 176 278 386 449 229 55 12 0 0 0 1 0 3 4 1 0 0 0 0 0 0 0 0 0
103 83 2 11 41 72 71 9 0 9 135 203 142 17 8 0 8 18 13 16 9 4 5 0 1 0 0 0 0 0 0 0
218 105 117 34 83 71 102 11 2 0 55 93 49 13 11 26 21 1 4 3 1 4 1 0 0 0 0 0 0 0 0 0
244 209 133 121 24 1 88 85 45 91 12 0 11 23 23 12 9 2 2 0 0 0 0 0 0 0 0 0 0 0 0 0
318 143 75 67 79 77 53 36 42 63 54 5 2 0 0 0 0 0 0 0 0 0 0 0 0 0 0 0 0 0 0 0
334 182 53 32 44 6 8 26 45 53 3 0 0 0 0 0 0 0 0 0 0 0 0 0 0 0 0 0 0 0 0 0
280 92 46 3 0 2 13 2 0 0 0 0 0 0 0 0 0 0 0 1 1 0 0 0 0 0 0 0 0 0 1 0
90 1 0 0 0 0 0 0 0 0 0 0 0 0 0 0 0 0 0 0 0 0 0 0 0 0 0 0 0 0 0 0
0 0 0 0 0 0 0 0 0 0 0 0 0 0 0 0 0 0 0 0 0 0 0 0 0 0 0 0 0 0 0 0
0 0 0 0 0 0 0 0 0 0 0 0 0 0 0 0 0 0 0 0 0 0 0 0 0 0 0 0 0 0 0 0
0 0 0 0 0 0 0 0 0 0 0 0 0 0 0 0 0 0 0 0 2 8 1 0 0 0 0 0 0 0 0 0
0 0 0 0 0 0 0 0 0 0 0 0 0 0 0 0 0 0 3 8 6 0 0 0 0 0 0 0 0 0 27 32
0 0 0 0 1 1 0 0 0 0 0 0 0 0 0 0 0 0 11 4 2 0 0 8 17 28 20 0 0 22 72 68

GFSFLT2_con_mucape_024.txt.gz
CAPE
1035 828 742 997 936 707 712 748 764 693 629 494 296 244 241 112 24 0 5 36 50 72 76 73 29 13 0 0 0 0 0 0
1098 1118 1086 1042 1068 605 626 587 550 564 516 265 140 132 122 31 123 122 114 69 130 157 94 34 0 0 0 0 0 0 0 0
1037 1047 1022 988 814 745 481 542 482 452 328 150 84 300 322 189 49 105 106 22 31 34 10 0 0 0 0 0 0 0 0 0
900 1196 943 934 462 409 193 104 245 525 542 541 518 663 576 239 140 19 0 0 0 0 0 0 0 0 0 0 0 0 0 0
1104 1026 842 396 246 90 27 145 540 738 857 901 954 901 987 751 205 21 32 0 2 0 0 0 0 0 0 0 0 0 0 0
683 590 429 262 35 1 171 528 736 801 1042 1161 1132 1085 974 707 48 42 65 14 13 0 0 0 0 0 0 0 0 0 0 0
336 257 210 175 186 384 637 736 815 918 1064 950 851 589 490 181 121 16 3 5 3 0 0 0 0 0 0 0 0 0 0 0
309 166 128 247 429 608 671 467 192 216 373 176 178 188 318 186 24 2 3 3 10 5 0 0 0 0 0 0 0 0 0 0
485 332 259 420 488 358 118 42 44 38 79 39 60 78 58 10 10 15 4 3 0 0 0 0 0 0 0 0 0 0 0 0
635 344 233 508 406 107 39 19 22 28 64 76 46 6 6 19 8 2 0 0 0 0 0 0 0 0 0 0 0 0 0 0
700 635 360 40 56 62 41 6 43 54 86 83 64 5 0 0 0 0 0 0 0 0 0 0 0 0 0 0 0 0 0 0
672 495 157 26 8 38 14 22 25 17 42 31 5 0 0 0 0 0 0 0 0 0 0 0 0 0 0 0 0 0 0 1
646 306 536 228 164 45 8 0 3 0 0 0 0 0 0 0 0 0 0 0 0 0 0 0 0 1 0 0 0 0 13 20
634 727 757 439 78 4 3 14 4 0 0 0 0 0 0 0 0 0 0 0 0 0 0 0 0 5 2 0 0 0 0 19
866 725 456 0 0 0 5 3 0 0 0 0 0 0 0 0 0 0 0 0 0 1 2 0 0 0 1 0 0 0 0 1
75 2 0 0 0 0 0 0 2 0 0 0 0 0 0 0 0 0 0 0 2 6 0 0 0 0 0 2 3 7 0 0
0 0 0 0 0 0 0 0 0 0 0 0 0 0 0 0 0 0 7 20 11 0 0 3 0 1 4 4 13 15 20 36
0 0 0 0 0 0 0 0 0 0 0 0 0 0 3 12 23 29 26 14 2 2 15 1 16 9 11 22 33 35 38 36
0 0 0 0 0 1 2 0 0 0 0 0 0 0 0 0 0 1 14 33 6 56 45 58 53 40 32 36 37 39 34 33
0 0 0 0 6 5 14 0 0 0 0 0 0 0 0 0 0 1 25 47 50 67 83 63 61 45 41 48 48 39 30 52

GFSFLT2_con_mucape_027.txt.gz
CAPE
687 672 624 649 629 596 594 648 619 600 524 349 232 284 295 105 36 42 62 87 124 109 66 0 0 0 0 9 0 0 0 0
859 830 865 837 684 535 520 499 506 526 303 201 164 151 125 83 257 147 162 140 111 107 52 0 0 0 0 0 0 30 0 5
697 672 821 891 657 474 457 553 497 324 111 96 57 233 247 195 85 116 57 0 26 27 0 0 6 0 0 0 1 0 0 0
687 948 963 799 317 185 32 24 136 347 318 355 549 510 628 216 76 63 0 0 1 0 0 0 12 0 2 0 0 0 0 0
723 811 703 407 255 63 1 152 450 656 747 834 854 683 697 661 365 152 177 24 127 31 29 11 0 0 0 0 0 0 0 0
714 549 444 196 6 2 54 450 629 845 951 997 859 729 972 656 258 88 156 70 64 37 33 0 0 0 0 0 0 0 0 0
333 285 174 39 37 176 611 691 1059 992 1015 971 908 737 1056 419 480 186 143 61 51 42 40 9 0 0 0 0 0 0 0 0
220 64 50 157 500 594 699 437 243 248 306 394 526 384 748 299 194 38 173 61 57 10 0 0 0 0 0 0 0 0 0 1
305 236 459 637 593 253 192 157 117 111 161 216 180 88 103 22 8 36 57 15 0 0 0 0 0 0 0 0 0 0 0 3
509 364 581 784 249 13 32 56 120 75 87 13 29 25 14 11 3 14 0 0 0 0 0 0 0 0 0 2 0 0 0 0
669 532 661 230 46 30 46 74 68 9 39 33 51 19 0 0 0 0 0 0 0 0 2 0 3 1 0 0 0 0 0 0
849 713 338 139 135 22 22 0 14 31 18 4 0 0 0 0 0 0 0 0 0 1 0 0 0 0 0 0 1 0 0 0
998 666 405 472 325 161 39 11 2 0 0 0 0 0 0 0 0 0 0 0 0 0 0 0 0 0 0 0 0 0 3 0
907 689 623 659 463 397 155 90 29 0 0 0 0 0 0 0 0 0 0 0 0 0 0 0 0 0 0 0 0 0 0 1
840 810 967 696 122 48 84 71 0 0 0 0 0 0 0 0 0 0 0 0 0 0 1 6 0 3 5 3 0 0 0 1
870 674 324 22 2 25 34 38 46 31 9 0 0 0 0 0 0 0 0 1 3 6 4 7 15 0 15 14 17 13 0 0
455 67 8 1 0 2 19 2 0 0 0 0 0 0 0 0 0 5 7 5 9 12 16 24 34 32 23 24 16 18 24 27
2 1 0 0 0 0 0 0 0 0 0 0 0 0 0 0 0 0 0 1 18 21 36 54 56 45 62 37 31 35 32 36
0 0 0 0 0 0 0 2 9 12 0 0 0 0 0 0 0 0 0 0 3 30 44 87 60 64 80 56 34 44 60 53
0 0 0 0 0 0 0 2 8 1 0 0 0 0 0 0 0 0 0 2 15 46 64 46 78 100 72 68 62 60 60 62

GFSFLT2_con_mucape_030.txt.gz
CAPE
165 359 581 548 533 532 527 507 450 353 313 273 275 265 236 277 320 279 217 186 182 76 47 0 0 0 0 0 0 31 0 1
254 334 517 398 352 389 395 412 339 218 187 162 126 118 176 248 248 244 114 87 73 45 2 0 0 0 0 0 0 0 0 0
129 330 558 353 309 383 441 459 260 128 92 105 60 71 31 183 85 82 2 0 5 0 0 0 46 8 10 72 8 0 0 0
343 558 648 361 67 136 122 90 7 10 16 240 315 566 176 154 77 57 0 0 0 6 0 0 27 0 0 0 0 0 0 0
521 392 447 227 115 60 36 205 405 471 627 768 658 866 667 303 241 24 32 2 76 5 49 14 1 0 0 0 0 0 0 0
609 497 506 171 124 12 23 498 523 921 814 826 812 687 669 527 119 166 85 28 61 66 62 41 6 0 0 0 0 0 0 0
346 357 292 182 328 534 617 796 877 978 809 590 698 511 509 459 146 26 10 6 22 34 1 0 0 0 0 0 0 0 0 0
262 194 240 322 715 685 509 418 423 379 237 413 563 359 277 97 61 0 2 1 8 2 0 0 0 0 0 0 0 0 0 0
180 111 295 567 500 306 186 48 57 70 143 206 141 54 9 5 2 4 2 0 0 0 0 0 0 0 0 0 0 0 0 0
192 245 549 367 134 33 6 3 38 19 11 0 2 7 0 0 2 0 0 0 0 0 0 0 0 0 0 0 0 0 0 0
566 691 415 205 77 69 63 89 0 0 0 0 4 3 2 0 0 0 0 0 0 0 0 0 0 0 0 0 0 0 0 0
541 746 447 256 105 83 61 2 0 0 0 3 0 0 0 0 0 0 0 0 0 0 0 0 0 0 0 0 0 0 0 0
598 536 314 203 143 131 35 0 0 0 0 0 0 0 0 0 0 0 0 0 0 0 0 0 0 0 0 0 0 0 0 0
487 547 303 366 416 186 69 4 0 0 0 0 0 0 0 0 0 0 0 0 0 0 0 0 0 0 0 0 0 0 0 0
548 487 449 508 484 209 58 9 0 0 0 0 0 0 0 0 0 0 0 0 0 0 0 0 0 0 0 0 0 0 0 0
760 722 712 637 350 30 10 0 0 1 1 0 0 0 0 0 0 0 0 0 0 0 0 0 0 0 0 0 0 0 0 0
1027 924 657 71 8 17 8 6 3 1 0 0 2 0 0 0 0 0 0 0 0 0 1 0 1 0 0 0 2 0 0 0
727 558 14 0 0 2 2 0 0 0 2 11 12 3 0 0 0 0 0 0 0 0 2 18 2 0 0 4 3 0 0 0
80 0 0 0 0 0 0 0 0 0 2 2 5 3 0 0 0 0 0 0 0 0 7 1 5 8 0 0 17 14 1 0
0 0 0 0 0 0 0 0 0 0 1 15 0 0 0 0 0 0 0 0 0 0 21 30 20 9 13 17 20 0 0 0

GFSFLT2_con_mucape_033.txt.gz
CAPE
156 237 400 372 379 296 233 175 193 221 271 269 245 208 244 286 312 317 270 226 117 4 0 0 0 0 17 0 0 2 0 0
149 295 262 248 235 226 177 131 144 133 126 101 81 109 182 233 200 134 54 20 11 0 0 0 0 0 0 10 0 0 0 0
132 228 232 153 98 163 136 103 71 64 64 34 29 16 5 40 5 22 0 0 0 0 0 0 0 0 0 6 0 0 0 0
75 148 174 68 42 32 20 13 1 0 102 112 166 85 40 0 0 12 0 0 0 0 0 1 0 0 0 0 0 0 0 0
19 115 160 1 5 2 0 1 0 35 177 281 278 185 22 130 35 2 0 1 19 0 0 0 0 0 0 0 0 0 0 0
80 312 94 5 9 8 148 197 188 300 470 453 294 272 51 0 8 23 0 9 22 4 3 0 0 0 0 0 0 0 0 0
235 331 29 24 12 105 200 363 351 456 439 386 244 182 44 38 9 6 21 11 3 0 6 2 0 0 0 0 0 0 0 0
162 163 21 87 304 310 337 293 315 388 136 192 56 46 0 7 55 24 6 0 4 0 0 0 0 0 0 0 0 0 0 0
79 31 304 302 248 240 193 218 262 177 11 22 16 25 0 1 7 0 0 0 0 0 0 0 0 0 0 0 0 0 0 0
22 198 313 225 191 161 99 0 0 0 0 0 0 0 0 0 0 0 0 0 0 0 0 0 0 0 0 0 0 0 0 0
28 352 261 206 180 8 0 0 0 0 0 0 0 0 0 0 0 0 0 0 0 0 0 0 0 0 0 0 0 0 0 0
355 364 316 187 42 12 9 0 0 0 0 0 0 0 0 0 0 0 0 0 0 0 0 0 0 0 0 0 0 0 0 0
456 425 299 124 13 20 14 0 16 0 0 0 0 0 0 0 0 0 0 0 0 0 0 0 0 0 0 0 0 0 0 0
456 446 386 207 37 69 39 33 22 0 0 0 0 0 0 0 0 0 0 0 0 0 0 0 0 0 0 0 0 0 0 0
508 482 306 204 137 175 83 11 0 0 0 0 0 0 0 0 0 0 0 0 0 0 0 0 0 0 0 0 0 0 0 0
721 487 250 136 246 238 10 0 0 0 0 0 0 0 0 0 0 0 0 0 0 0 0 0 0 0 0 0 0 0 0 0
556 357 303 237 288 68 5 0 0 0 0 0 0 0 0 3 0 0 0 0 0 0 0 0 0 0 0 0 0 0 0 0
552 469 495 449 232 31 8 2 0 0 0 0 0 10 7 3 0 0 0 0 0 0 0 0 0 0 4 0 0 0 0 0
651 696 336 42 0 0 0 0 0 0 1 4 21 13 14 7 0 0 0 0 0 0 0 0 0 0 0 1 4 3 10 15
553 245 21 0 0 0 0 0 0 0 0 0 4 17 26 10 0 0 0 0 0 0 0 0 1 7 4 4 4 0 12 14

GFSFLT2_con_mucape_036.txt.gz
CAPE
83 76 157 325 315 270 200 225 265 298 268 227 206 207 245 275 298 293 220 107 10 0 0 0 0 0 0 0 0 0 0 0
7 132 94 152 175 190 166 172 182 183 176 147 129 148 189 201 167 167 113 22 0 0 0 0 0 0 0 0 0 0 0 0
1 84 135 150 126 136 152 166 141 111 103 66 20 6 9 16 0 14 0 0 0 0 0 0 0 8 0 0 0 0 0 0
12 38 68 116 70 27 9 10 3 0 11 12 20 15 0 0 0 0 0 0 0 0 0 0 0 0 0 0 0 0 0 0
20 121 70 29 9 0 0 0 37 76 66 106 53 11 7 0 0 0 0 0 0 0 0 0 0 0 0 0 0 0 0 0
31 76 62 9 2 1 0 0 1 99 250 269 217 64 37 52 5 0 0 0 0 0 0 0 0 0 0 0 0 0 0 0
55 87 107 3 0 0 6 8 67 345 347 150 215 58 0 0 0 0 0 0 0 0 0 0 0 0 0 0 0 0 0 0
97 176 186 8 30 124 138 259 363 351 341 138 91 83 26 11 0 0 0 0 0 0 0 0 0 0 0 0 0 0 0 0
183 325 50 96 136 132 303 327 357 144 2 7 0 1 0 0 0 0 0 0 0 0 0 0 0 0 0 0 0 0 0 0
350 272 102 181 196 240 313 288 301 41 0 0 0 0 0 0 0 0 0 0 0 0 0 0 0 0 0 0 0 0 0 0
219 182 207 260 271 267 297 162 111 0 0 0 0 0 0 0 0 0 0 0 0 0 0 0 0 0 0 0 0 0 0 0
177 270 237 247 229 175 162 54 0 0 0 0 0 0 0 0 0 0 0 0 0 0 0 0 0 0 0 0 0 0 0 0
181 245 231 187 138 123 19 5 0 0 0 0 0 0 0 0 0 0 0 0 0 0 0 0 0 0 0 0 0 0 0 0
181 228 245 198 94 19 20 14 0 0 0 0 0 0 0 0 0 0 0 0 0 0 0 0 0 0 0 0 0 0 0 0
334 274 292 279 150 48 24 30 15 9 2 0 0 0 0 0 0 0 0 0 1 0 0 0 0 0 0 0 0 0 0 0
474 420 386 304 199 123 55 50 21 49 3 0 0 0 0 0 0 0 0 0 0 0 0 0 0 0 0 0 0 0 0 0
520 551 515 346 285 165 127 126 30 0 0 0 0 0 0 0 0 6 12 1 1 0 0 0 0 0 0 0 0 0 0 0
550 566 417 305 195 187 237 196 19 0 0 0 0 0 0 2 10 19 2 6 0 0 0 0 0 0 0 0 0 0 0 0
673 574 415 340 176 275 303 126 26 12 2 0 3 7 9 24 1 1 0 4 0 0 0 0 0 0 0 0 0 0 0 0
603 447 442 458 430 391 254 73 47 70 52 51 37 43 29 0 0 1 9 0 0 0 0 0 0 0 0 0 0 0 2 18

GFSFLT2_con_mucape_039.txt.gz
CAPE
49 108 241 234 240 209 235 334 373 349 312 296 293 267 249 243 211 186 143 74 16 2 1 19 0 0 0 0 0 0 0 0
44 7 102 155 147 185 243 276 319 292 271 242 234 228 246 231 194 166 151 95 6 0 18 41 0 0 0 0 0 0 0 0
38 16 17 75 127 144 207 279 234 201 200 159 72 23 3 0 15 27 41 17 4 14 4 0 0 0 0 0 0 0 0 0
7 7 4 76 95 61 47 81 40 23 9 6 0 0 0 0 6 0 0 0 0 1 0 0 0 0 0 0 0 0 0 0
13 10 98 124 81 21 7 13 0 0 18 10 5 11 2 0 0 0 0 0 0 0 0 0 0 0 0 0 0 0 0 0
0 114 119 129 43 0 0 0 1 39 89 71 42 51 8 0 0 0 0 0 0 0 0 0 0 0 0 0 0 0 0 0
24 114 135 75 16 0 0 45 126 196 266 268 215 55 57 52 2 0 0 0 0 0 0 0 0 0 0 0 0 0 0 0
57 157 111 34 0 0 0 18 268 400 314 312 206 61 29 15 0 0 0 0 0 1 0 0 0 0 0 0 0 0 0 0
69 121 167 35 0 0 5 139 419 387 271 140 154 118 17 16 0 0 0 0 0 0 0 0 0 0 0 0 0 0 0 0
115 181 214 17 0 5 151 328 391 341 246 157 72 76 42 8 0 0 0 0 0 0 0 0 0 0 0 0 0 0 0 0
179 260 245 17 19 196 324 389 325 165 4 0 0 0 0 0 0 0 0 0 0 0 0 0 0 0 0 0 0 0 0 0
287 359 338 33 66 161 295 406 377 172 19 0 0 0 0 0 0 0 0 0 0 0 0 0 0 0 0 0 0 0 0 0
398 372 273 119 203 256 297 395 264 102 0 0 0 0 0 0 0 0 0 0 0 0 0 0 0 0 0 0 0 0 0 0
452 300 172 224 274 357 355 241 109 5 0 0 0 0 0 0 0 0 0 0 0 0 0 0 0 0 0 0 0 0 0 0
398 175 203 267 312 261 126 49 15 20 12 14 20 4 0 0 0 0 0 0 0 0 0 0 0 0 0 0 0 0 0 0
254 146 211 242 218 144 94 71 52 49 40 45 46 0 0 0 0 0 0 0 0 0 0 0 0 0 0 0 0 0 0 0
319 236 165 183 229 205 206 97 76 80 85 69 27 6 0 0 0 0 1 0 6 17 0 0 0 0 0 0 0 0 0 0
288 259 238 326 291 312 262 113 97 101 121 22 15 4 0 0 1 1 14 29 7 8 2 0 0 0 0 0 0 0 0 0
291 258 327 404 414 402 297 239 122 119 54 13 5 3 3 7 16 13 21 23 0 17 8 1 0 0 0 0 0 0 0 0
261 433 486 515 509 401 313 274 204 129 68 44 50 39 41 38 29 30 7 0 0 12 0 0 0 0 0 0 0 0 0 0

GFSFLT2_con_mucape_042.txt.gz
CAPE
163 17 125 266 285 325 371 424 387 377 370 369 342 298 277 238 201 158 133 142 110 33 0 0 12 7 0 0 0 0 0 0
8 0 8 190 243 358 380 357 336 354 320 254 218 228 231 205 208 200 126 103 148 146 24 0 0 0 0 0 0 0 0 0
47 13 85 119 184 282 309 380 298 271 219 193 47 27 27 0 67 111 96 88 73 26 1 0 0 0 0 0 0 0 0 0
9 4 23 92 91 129 141 187 86 33 36 17 12 2 0 0 1 8 22 23 4 0 0 0 0 0 0 0 0 0 0 0
0 14 20 144 75 33 44 24 9 0 0 0 0 1 0 0 0 0 0 0 0 0 0 0 0 0 0 0 0 0 0 0
1 10 116 149 38 0 6 2 1 0 0 0 1 4 0 0 0 0 0 0 0 0 0 0 0 0 0 0 0 0 0 0
0 18 140 98 45 0 1 0 0 6 25 55 62 53 1 0 0 0 0 0 0 0 0 0 0 0 0 0 0 0 0 0
1 55 123 90 9 0 0 0 0 52 153 169 198 80 81 93 43 14 0 0 0 2 4 1 0 0 0 0 0 0 0 0
15 64 154 74 0 0 0 0 96 266 297 284 198 115 51 39 41 15 13 0 11 27 0 0 0 0 0 0 0 0 0 0
22 127 198 73 0 0 0 0 316 295 272 164 195 118 83 61 47 38 20 20 19 7 0 0 0 0 0 0 0 0 0 0
58 125 188 117 0 0 0 33 309 249 194 174 146 96 59 56 43 16 12 20 12 0 0 0 0 0 0 0 0 0 0 0
111 161 223 154 0 0 11 245 252 199 24 25 0 1 2 4 0 0 7 8 0 0 0 0 0 0 0 0 0 0 0 0
123 248 289 191 11 7 123 294 252 253 187 84 25 0 0 0 0 3 0 0 0 0 0 0 0 0 0 0 0 0 0 0
197 182 330 356 51 16 76 177 328 239 399 147 5 0 2 1 0 0 0 0 0 0 0 0 0 0 0 0 0 0 0 0
253 312 419 370 91 35 88 171 291 285 181 40 7 25 49 10 0 0 0 0 0 0 0 0 0 0 0 0 0 0 0 0
311 442 462 398 326 110 172 254 307 324 97 15 14 53 59 1 0 0 0 0 0 0 0 0 5 0 0 0 0 0 0 0
443 530 572 449 269 176 227 306 277 83 23 21 64 77 53 0 0 0 0 0 0 1 5 26 17 0 0 0 0 0 0 0
552 561 556 347 162 209 250 251 164 105 60 69 60 69 33 19 1 0 0 0 6 23 19 0 0 0 0 0 0 0 0 0
576 644 568 403 288 288 251 205 158 201 105 56 55 35 11 8 8 7 5 3 10 4 19 10 1 0 0 0 0 0 0 0
592 667 753 533 351 287 319 188 337 335 166 117 99 27 30 36 52 11 8 7 4 5 0 0 0 0 0 0 0 0 0 0

GFSFLT2_con_mucape_045.txt.gz
CAPE
260 134 66 128 362 220 224 319 354 363 336 324 263 197 139 152 202 227 189 83 51 119 149 74 12 0 0 0 0 0 0 0
229 35 2 81 373 267 223 301 343 363 289 183 156 148 184 197 168 194 269 199 87 36 25 42 0 0 0 0 0 0 0 0
72 42 3 87 355 394 269 327 287 243 203 145 36 13 10 0 62 109 151 209 76 9 0 0 0 0 0 0 0 0 0 0
30 2 0 104 221 224 215 234 144 120 81 53 31 62 25 3 11 58 76 22 0 0 0 0 0 0 0 0 0 0 0 0
0 1 0 117 176 171 80 68 76 99 61 39 55 59 55 0 0 0 0 0 0 0 0 0 0 0 0 0 0 0 0 0
21 3 4 58 59 93 64 45 31 38 10 41 85 19 6 0 0 0 0 0 0 0 0 0 0 0 0 0 0 0 0 0
4 76 193 158 85 46 34 28 12 51 21 51 88 11 0 0 0 0 0 0 0 0 0 0 0 0 0 0 0 0 0 0
43 100 195 145 51 6 4 26 35 51 52 64 138 145 16 0 0 0 2 7 0 0 0 4 0 0 0 0 0 0 0 0
6 64 216 116 35 0 0 0 64 192 193 196 149 71 66 88 61 42 33 11 8 13 14 1 0 0 0 0 0 0 0 0
1 43 212 130 5 0 0 72 235 156 183 223 158 112 71 51 50 32 24 42 20 24 26 0 0 0 0 0 0 0 0 0
12 83 273 159 3 1 2 75 134 243 215 181 130 87 84 67 44 28 39 50 29 25 0 0 0 0 0 0 0 0 0 0
34 115 235 259 14 3 7 31 134 273 201 119 77 78 64 44 31 33 33 19 15 3 0 0 0 0 0 0 0 0 0 0
166 212 216 224 46 16 22 32 48 222 161 76 47 26 2 0 12 3 3 7 0 0 0 0 0 0 0 0 0 0 0 0
181 205 193 240 78 27 20 41 68 275 188 127 95 39 18 9 19 0 0 0 0 0 0 0 0 0 0 0 0 0 0 0
216 221 222 310 223 24 2 0 188 271 138 169 42 37 13 12 5 0 0 0 0 0 0 0 0 0 0 0 0 0 0 0
200 226 157 204 364 207 24 30 65 119 179 85 62 72 3 5 21 4 0 0 0 0 0 0 0 0 0 0 0 0 0 0
272 204 148 126 323 366 84 39 16 49 208 130 60 41 4 32 30 9 0 0 0 0 0 0 0 0 0 0 0 0 0 0
345 180 217 222 385 446 382 278 65 148 225 215 93 53 42 34 32 17 7 0 0 1 0 0 0 0 0 0 0 0 0 0
450 348 249 356 525 570 484 301 240 218 305 221 271 108 37 44 32 14 7 3 7 0 3 0 0 0 0 0 0 0 0 0
676 439 387 499 545 625 476 368 317 258 240 153 137 109 53 46 23 18 18 44 1 0 0 0 3 0 0 0 0 0 0 0

GFSFLT2_con_mucape_048.txt.gz
CAPE
259 200 162 67 115 239 271 271 305 346 380 349 352 292 266 268 207 198 280 256 212 189 91 20 0 0 0 0 0 0 0 0
47 137 171 43 133 282 364 327 329 358 311 238 170 203 241 267 192 198 169 220 246 205 26 0 0 0 0 0 0 0 0 0
132 174 194 4 38 260 422 375 289 208 235 184 48 9 11 23 119 280 216 144 75 21 0 0 0 0 0 0 0 0 0 0
254 228 13 0 109 202 369 303 213 140 108 70 65 66 49 10 61 152 70 20 0 0 0 0 0 0 0 0 0 0 0 0
46 10 16 3 107 263 312 251 261 179 207 92 136 102 44 7 13 0 0 0 0 0 0 0 0 0 0 0 0 0 0 0
3 9 0 5 3 154 212 122 88 119 183 194 188 154 51 28 34 19 0 0 0 0 0 0 0 0 0 0 0 0 0 0
3 16 3 4 3 209 152 198 80 98 184 225 96 63 44 24 53 9 0 0 0 0 0 0 0 0 0 0 0 0 0 0
10 3 13 53 137 261 232 169 105 202 102 182 289 66 82 39 65 26 16 7 0 0 0 0 0 0 0 0 0 0 0 0
39 33 41 14 95 212 132 98 57 62 186 449 483 355 193 68 46 9 0 12 3 0 0 2 0 0 0 0 0 0 0 0
121 99 119 189 152 20 68 49 121 214 429 620 670 566 394 179 57 46 44 30 4 2 7 7 0 0 0 0 0 0 0 0
139 222 281 383 311 24 45 95 254 478 697 638 602 429 152 89 49 43 33 12 11 11 9 0 0 0 0 0 0 0 0 0
195 250 441 589 404 176 6 131 272 612 694 579 417 182 67 55 50 26 5 12 8 7 6 0 0 0 0 0 0 0 0 0
206 374 520 664 445 100 2 76 284 632 662 532 325 70 44 48 5 0 3 0 0 2 0 0 0 0 0 0 0 0 0 0
248 258 369 764 571 173 41 23 165 311 501 489 305 105 0 1 1 0 8 0 0 0 0 0 0 0 0 0 0 0 0 0
306 260 395 682 645 382 113 114 300 418 350 157 147 125 82 14 8 3 7 3 0 0 0 0 0 0 0 0 0 0 0 0
411 430 522 738 839 600 230 70 211 406 534 309 117 99 26 49 6 2 3 6 1 0 0 0 0 0 0 0 0 0 0 0
504 475 555 723 926 929 555 187 142 517 622 308 35 67 96 94 6 3 9 34 17 0 0 0 0 1 0 0 0 0 0 0
1040 716 688 744 836 883 951 739 442 509 442 322 59 83 83 49 48 25 25 38 33 13 0 2 0 0 0 0 0 0 0 0
1356 1096 885 816 845 861 1005 980 886 630 410 325 142 127 152 266 263 84 28 37 16 6 2 11 1 1 0 0 0 0 0 0
1640 1135 989 917 962 919 1065 1009 737 758 621 421 208 275 175 212 142 66 45 32 14 8 27 4 0 0 0 1 0 0 0 0

GFSFLT2_con_mucape_051.txt.gz
CAPE
308 209 259 248 225 191 204 325 426 492 511 450 407 315 286 473 543 445 331 266 215 168 78 10 0 0 0 0 0 0 0 0
310 47 85 132 229 124 207 281 345 341 318 289 269 230 246 299 313 317 309 259 206 79 16 0 0 0 0 0 0 0 0 0
223 140 66 147 118 158 276 404 343 257 244 185 101 34 0 51 178 281 327 263 120 9 0 0 0 0 0 0 0 0 0 0
316 214 0 3 92 99 139 396 275 217 173 193 95 148 161 46 167 199 172 127 28 0 0 0 0 0 0 0 0 0 0 0
189 110 43 4 1 1 100 199 243 213 220 228 267 209 123 178 89 0 0 0 0 0 0 0 0 0 0 0 0 0 0 0
202 42 26 5 1 70 103 181 245 215 300 399 411 308 307 248 109 11 0 0 0 0 1 0 0 0 0 0 0 0 0 0
24 6 4 4 72 75 148 112 84 178 254 333 330 286 410 245 267 113 60 48 11 1 0 0 0 0 0 0 0 0 0 0
3 5 17 12 7 25 113 142 162 232 329 360 456 427 449 143 189 107 106 77 51 7 0 0 0 0 0 0 0 0 0 0
2 2 4 14 4 1 81 203 229 282 266 520 568 354 347 323 342 212 137 86 36 0 0 0 0 0 0 0 0 0 0 0
3 3 56 27 35 53 75 245 230 194 242 515 607 317 268 282 235 176 109 49 2 0 0 0 0 0 0 0 0 0 0 0
12 20 0 37 186 247 365 250 74 4 161 428 535 606 599 674 340 230 106 30 6 0 0 3 0 0 0 0 0 0 0 0
90 92 114 235 367 165 50 160 155 208 379 545 619 741 666 624 337 251 83 19 0 0 4 0 0 0 0 0 0 0 0 0
217 322 400 386 253 118 0 135 139 195 378 554 603 606 499 458 305 202 61 8 1 0 0 0 0 0 0 0 0 0 0 0
260 240 267 555 419 175 40 15 53 90 277 628 559 522 419 374 303 94 36 10 0 0 0 1 22 0 0 0 0 0 0 0
385 410 528 569 576 397 103 8 64 101 271 492 558 599 463 277 247 84 36 12 8 3 0 7 17 0 0 0 0 0 1 1
415 410 438 446 522 509 288 69 8 83 244 419 532 401 194 67 78 35 42 4 4 8 4 2 0 0 0 0 0 6 0 0
762 476 383 410 573 621 660 322 109 188 430 676 854 519 191 103 51 55 81 2 5 8 4 3 1 0 2 4 1 3 0 0
991 572 480 484 659 789 970 743 428 152 700 867 811 634 331 84 84 94 87 34 12 9 7 11 8 0 0 5 1 0 0 0
1323 769 507 555 674 855 987 992 861 672 535 977 687 506 260 109 38 71 56 104 61 35 19 16 4 4 4 0 0 0 7 4
1353 1216 1045 702 568 870 1256 1124 1518 1277 1172 978 861 738 570 199 213 162 135 68 66 38 27 26 11 12 11 12 0 0 2 0

GFSFLT2_con_mucape_054.txt.gz
CAPE
589 513 406 379 355 452 485 624 686 689 614 486 533 692 792 841 639 393 302 240 185 78 14 0 0 0 0 0 0 0 0 0
478 220 164 5 51 202 321 460 489 416 292 235 334 470 426 402 334 282 233 210 131 36 3 0 0 0 0 0 0 0 0 0
516 389 192 26 0 100 359 448 336 233 189 197 200 239 201 148 212 249 224 149 76 8 0 0 0 0 0 0 0 0 0 0
487 398 115 9 0 0 83 279 249 154 99 76 71 67 119 148 218 243 192 75 5 0 0 0 0 0 0 0 0 0 0 0
330 193 128 61 6 2 42 88 191 243 196 153 180 149 111 84 51 39 18 1 0 0 0 0 0 0 0 0 0 0 0 0
184 163 108 20 7 5 2 21 129 195 285 315 253 193 185 60 28 9 0 0 0 0 0 0 0 0 0 0 0 0 0 0
100 19 15 8 4 2 1 70 124 133 273 317 369 253 268 115 103 7 0 0 0 1 0 0 0 0 0 0 0 0 0 0
17 10 15 10 4 11 8 58 139 173 280 294 371 337 360 296 335 177 75 64 13 1 0 0 0 0 0 0 0 0 0 0
3 1 1 11 14 49 46 90 184 261 283 351 294 347 329 302 319 279 141 107 70 8 0 0 0 0 0 0 0 0 0 0
8 0 2 10 2 1 0 39 263 231 259 254 387 405 315 317 263 330 263 126 37 5 0 2 0 0 0 0 0 0 0 0
0 0 20 14 7 9 24 68 177 142 126 264 400 414 372 344 388 302 275 55 20 0 0 0 0 0 0 0 0 0 0 0
0 0 0 0 0 0 18 93 137 43 7 178 360 404 516 425 345 355 93 35 12 0 0 0 0 0 0 0 0 0 0 0
0 0 0 0 38 21 10 57 22 0 19 283 463 408 450 407 417 263 97 44 9 1 0 0 0 0 0 0 0 0 0 0
0 0 0 0 15 15 0 0 18 6 33 383 520 499 496 474 393 163 112 64 18 0 0 0 0 0 0 8 0 0 0 0
42 29 3 0 58 102 56 0 1 21 53 271 363 333 316 361 318 198 86 47 1 0 0 0 0 4 0 0 0 0 0 0
199 224 222 188 284 288 177 2 0 3 0 195 346 486 382 334 258 224 140 19 1 6 0 3 14 52 14 5 0 0 0 0
279 321 283 302 419 513 323 126 17 0 104 133 412 538 437 349 201 103 33 18 20 39 2 5 7 41 12 5 1 1 4 4
400 422 364 340 579 661 534 378 188 103 202 316 579 503 318 180 115 82 44 37 50 59 46 39 50 7 10 15 14 0 3 3
552 530 477 416 425 640 501 709 571 337 307 451 564 540 376 287 166 56 37 56 62 68 48 32 61 13 5 1 1 5 3 4
609 592 579 542 499 691 770 591 735 594 526 437 435 507 408 272 180 152 124 96 131 64 15 44 48 19 2 0 5 14 3 1

GFSFLT2_con_mucape_060.txt.gz
CAPE
528 515 525 341 170 64 161 710 875 1048 947 867 843 521 463 381 220 98 50 0 0 0 0 0 0 0 0 0 0 0 0 0
498 417 272 177 81 1 51 463 754 922 881 741 607 396 378 255 142 108 67 7 0 0 0 0 0 0 0 0 0 0 0 0
517 438 282 161 70 45 196 450 629 686 442 414 393 173 102 32 101 102 93 21 9 0 0 0 0 0 0 0 0 0 0 0
482 381 254 111 95 69 251 314 318 290 182 285 306 176 50 63 86 127 124 51 13 0 0 0 0 0 0 0 0 0 0 0
475 370 257 222 158 47 34 93 253 279 221 190 238 172 69 27 21 22 27 14 0 0 0 0 0 0 0 0 0 0 0 0
360 374 246 226 139 111 28 51 156 141 135 109 98 64 18 16 4 4 2 3 0 0 0 0 0 0 0 0 0 0 0 0
187 135 201 138 111 61 6 19 17 41 72 60 46 18 1 8 2 0 2 0 0 0 0 0 0 0 0 0 0 0 0 0
49 81 199 70 63 12 11 0 27 36 37 5 8 2 8 2 0 1 0 2 1 0 0 0 0 0 0 0 0 0 0 0
31 17 25 8 19 9 19 5 33 25 57 40 12 4 7 0 0 0 0 3 1 0 0 0 0 0 0 0 0 0 0 0
16 12 29 28 20 13 11 5 3 43 89 102 78 72 37 19 30 67 33 30 11 3 0 0 0 0 0 0 0 0 0 0
15 13 11 5 17 15 9 8 1 21 21 73 112 133 134 100 69 99 92 67 16 15 4 0 0 0 0 0 0 0 0 0
0 2 1 0 4 3 27 10 1 7 14 25 87 112 166 154 93 100 121 93 23 9 0 0 0 0 0 0 0 0 0 0
0 0 0 0 9 7 1 0 0 11 12 8 13 53 105 143 108 73 127 114 75 37 18 12 5 0 0 0 0 0 0 0
0 0 0 0 0 1 3 10 8 2 10 8 0 52 105 99 98 135 132 157 85 62 29 25 9 0 0 0 0 0 0 0
0 0 0 0 0 0 0 0 1 0 0 0 0 0 15 68 104 157 148 136 128 58 39 29 5 0 3 2 3 0 0 0
0 0 0 0 0 0 0 0 0 0 0 0 0 0 5 12 63 130 184 120 128 81 57 58 13 16 39 17 18 7 50 0
0 0 0 0 0 0 0 0 0 0 0 0 0 0 0 69 97 102 103 131 120 143 95 53 34 48 39 32 4 22 12 2
0 0 0 0 0 0 0 0 0 0 0 0 0 0 0 43 110 170 155 139 165 162 139 44 44 46 51 49 17 5 22 20
0 0 0 0 0 0 0 0 0 0 0 0 0 0 0 27 64 104 124 128 208 228 166 67 63 63 67 26 19 7 15 4
0 0 0 0 0 0 0 0 0 9 6 27 6 7 28 58 91 127 194 121 214 191 180 107 78 99 46 61 13 15 8 3

GFSFLT2_con_mucape_063.txt.gz
CAPE
458 310 337 124 21 65 48 171 485 583 756 661 576 355 203 101 2 0 0 0 0 0 0 0 0 0 0 0 0 0 0 0
300 251 196 59 34 41 3 17 252 419 627 475 318 256 157 24 0 0 0 0 0 0 0 0 0 0 0 0 0 0 0 0
296 230 139 42 40 17 5 58 172 299 364 328 191 69 1 0 0 0 0 0 0 0 0 12 2 0 0 0 0 0 0 0
282 182 365 86 78 17 9 13 34 102 162 179 155 29 0 0 0 0 0 0 0 0 0 0 0 0 0 0 0 0 0 0
321 239 181 122 43 0 0 0 1 54 121 153 59 10 0 0 0 0 0 0 0 0 0 0 0 0 0 0 0 0 0 0
269 284 184 120 12 2 32 55 74 84 108 125 46 13 1 0 0 0 0 0 0 0 0 0 0 0 0 0 0 0 0 0
104 126 134 140 118 81 20 92 97 158 136 153 41 2 0 0 0 0 3 0 0 0 0 0 0 0 0 0 0 0 0 0
86 61 179 63 77 56 52 135 158 165 155 185 63 0 0 0 1 4 5 2 2 0 0 0 0 0 0 0 0 0 0 0
50 27 44 30 66 9 56 28 45 153 136 130 50 0 0 1 4 2 0 6 5 0 0 0 0 0 0 0 0 0 0 0
22 14 29 57 57 2 16 9 106 95 120 92 15 1 0 0 1 0 4 2 1 0 0 0 0 0 0 0 0 0 0 0
11 7 14 19 13 19 12 18 76 87 80 60 32 22 14 1 0 7 0 14 24 16 10 0 0 0 0 0 0 0 0 0
2 4 14 22 12 12 17 15 56 74 73 77 84 75 71 34 44 90 75 57 49 46 42 24 4 6 0 0 0 0 0 0
10 1 0 4 7 16 20 14 5 4 86 99 118 120 140 144 147 136 145 131 134 82 48 44 20 15 13 0 0 0 0 0
5 4 0 0 0 2 1 11 5 16 13 44 42 80 91 131 131 113 81 91 103 125 91 54 40 31 22 3 0 0 0 0
0 0 0 0 0 0 0 17 10 1 3 2 16 23 44 56 55 70 42 51 93 123 59 66 59 43 31 18 0 0 0 0
0 0 0 0 0 0 0 0 0 3 6 0 4 19 7 0 30 77 56 42 65 90 90 47 64 65 54 29 19 13 22 3
0 0 0 0 0 0 0 0 0 0 0 0 0 0 0 0 0 10 10 13 67 118 117 70 74 61 68 29 26 22 1 3
0 0 0 0 0 0 0 0 0 0 0 0 0 0 0 0 0 19 34 26 63 134 112 71 58 50 65 38 34 37 21 26
0 0 0 0 0 0 0 0 0 0 0 0 0 0 0 0 0 34 45 72 132 141 123 74 75 65 80 55 57 57 39 37
0 0 0 0 0 0 0 0 0 0 0 0 0 0 0 0 0 4 22 38 46 113 145 68 81 125 131 75 72 67 21 27

GFSFLT2_con_mucape_066.txt.gz
CAPE
638 411 395 344 207 243 202 54 284 541 562 462 347 238 216 185 23 0 0 87 151 5 0 0 0 0 0 0 0 0 0 0
436 226 155 65 48 48 76 28 302 597 580 369 227 182 136 0 0 0 0 1 30 0 0 0 0 0 0 0 0 0 0 0
253 100 44 16 8 11 44 131 124 371 423 279 146 61 0 0 0 0 0 0 0 0 0 0 0 0 0 0 0 0 0 0
124 105 73 18 13 9 30 54 85 139 233 212 100 4 0 0 0 0 0 0 0 15 5 1 0 0 0 0 0 0 0 0
226 129 89 37 56 31 10 17 21 77 186 179 64 0 0 0 0 0 0 0 0 0 0 0 0 0 0 0 0 0 0 0
253 153 155 50 50 23 2 0 10 22 71 128 38 0 0 0 0 0 0 0 0 0 0 0 0 0 0 0 0 0 0 0
163 114 98 65 34 0 1 0 0 1 1 76 9 0 0 0 0 0 0 0 0 0 0 0 0 0 0 0 0 0 0 0
88 84 52 61 78 32 25 2 6 19 25 48 24 0 0 0 0 0 0 0 0 0 0 0 0 0 0 0 0 0 0 0
16 64 44 70 23 31 26 2 8 40 44 29 10 0 0 0 9 9 4 3 7 3 4 2 0 0 0 0 0 0 0 0
18 7 9 12 63 25 41 69 65 80 63 67 6 6 7 8 17 15 12 10 14 18 19 10 2 0 0 0 0 0 0 0
14 9 13 25 17 13 20 22 30 21 80 103 55 19 18 19 17 5 5 1 11 28 57 16 1 1 0 0 0 0 0 0
2 2 34 3 6 16 11 24 7 11 86 114 108 17 5 5 2 1 0 8 25 69 80 52 14 15 8 3 0 0 0 0
2 1 0 3 17 12 21 0 9 19 74 58 63 31 36 21 3 0 35 56 99 103 90 75 71 41 8 3 0 0 0 0
0 0 3 0 17 22 0 3 23 16 30 38 48 67 98 80 41 62 133 160 138 162 144 113 70 52 7 2 0 0 0 0
0 0 0 0 7 3 2 9 10 21 67 50 75 99 105 111 132 142 140 145 182 169 151 142 114 56 45 31 12 1 0 0
0 0 0 0 0 0 0 0 0 33 1 61 46 56 58 51 79 101 120 115 115 96 102 114 83 52 35 43 34 19 26 2
0 0 0 0 0 0 0 0 4 6 17 6 4 0 1 3 38 21 33 75 96 86 87 107 90 80 66 41 48 35 37 33
0 1 0 0 0 0 0 0 0 1 3 7 0 0 0 0 0 0 8 6 17 23 21 59 102 117 72 58 47 32 43 47
0 0 0 0 0 0 0 0 0 0 0 0 0 0 0 0 0 0 0 8 20 6 38 35 96 110 92 74 40 48 52 67
0 0 0 0 0 0 0 0 0 0 0 0 0 0 0 0 0 0 0 9 12 9 29 37 47 51 3 0 5 51 68 68

GFSFLT2_con_mucape_069.txt.gz
CAPE
785 915 956 944 892 653 616 789 786 687 499 509 470 334 361 267 56 88 365 362 157 1 0 0 0 0 0 0 0 0 0 0
795 845 529 882 908 365 312 313 269 264 398 318 223 283 246 87 11 170 354 253 72 0 0 0 0 0 0 0 0 0 0 0
766 596 257 165 188 178 97 22 22 122 201 261 179 320 99 0 0 160 253 89 16 0 0 0 0 0 0 0 0 0 0 0
277 220 62 125 74 28 4 3 3 13 128 238 204 103 20 0 0 41 119 80 45 0 0 0 0 0 0 0 0 0 0 0
230 110 92 45 75 42 49 12 6 23 86 153 117 35 12 3 0 0 48 73 10 0 0 0 0 0 0 0 0 0 1 1
193 136 96 42 64 35 32 15 8 38 145 205 94 12 0 4 0 0 0 17 46 0 0 0 0 0 0 0 0 0 0 3
84 78 64 61 29 46 17 17 10 52 119 146 33 2 0 0 0 0 0 0 0 0 0 0 0 0 0 0 0 0 0 2
46 36 81 48 33 55 24 1 83 96 103 118 59 2 27 0 1 0 0 0 0 0 0 0 0 0 0 0 0 0 0 0
25 13 27 44 39 45 26 4 19 47 72 58 43 25 32 3 0 0 0 0 0 0 0 0 0 0 0 0 0 0 0 0
20 5 8 31 21 39 12 54 50 90 84 82 40 49 21 5 0 0 0 0 2 2 0 1 1 0 0 0 0 0 0 0
3 7 14 10 22 37 10 47 7 8 21 41 31 26 29 19 1 0 0 9 8 13 10 15 13 3 2 0 0 0 0 0
2 8 18 23 38 21 18 18 15 4 21 34 68 38 25 34 28 11 13 25 20 27 59 45 36 37 25 10 6 1 0 0
1 7 6 1 28 22 32 2 2 16 22 45 89 26 41 31 17 32 39 19 33 37 70 85 82 68 56 33 1 8 0 0
0 2 0 11 10 1 7 8 10 3 5 19 56 40 50 52 33 57 32 76 78 35 74 103 102 86 93 88 50 16 15 8
1 0 1 0 0 3 14 19 3 1 5 2 45 38 63 71 67 117 102 123 130 100 61 79 151 123 118 91 67 18 6 5
9 0 0 0 5 8 8 16 0 0 2 22 23 26 72 115 132 135 121 176 184 101 115 155 162 153 119 77 53 34 37 0
10 10 0 0 0 2 2 9 6 2 5 16 0 0 50 75 127 103 136 101 120 198 116 87 113 129 114 97 35 4 4 9
9 0 0 0 0 0 0 1 3 6 12 8 2 4 33 19 61 145 204 176 206 202 146 110 81 42 59 67 57 38 8 11
0 0 0 0 0 0 0 0 0 1 1 3 2 13 7 17 77 78 89 60 96 123 128 110 101 87 48 36 47 54 30 15
0 0 0 0 0 0 0 0 0 0 0 1 1 1 5 0 10 18 30 36 55 92 122 120 115 123 69 24 13 32 0 38

GFSFLT2_con_mucape_072.txt.gz
CAPE
1431 1087 968 763 878 738 760 1124 1113 1017 1021 875 807 592 536 552 467 344 408 194 64 7 7 4 0 0 0 0 0 0 0 1
918 1102 894 812 1023 579 626 635 777 748 746 524 354 364 217 181 289 484 410 184 2 3 1 0 0 0 0 0 0 0 0 0
716 1023 1111 1067 824 468 304 437 439 351 331 249 236 339 205 123 147 342 279 97 0 0 1 0 0 0 0 0 0 0 0 2
930 1043 1032 383 447 210 96 157 206 57 94 116 168 350 199 13 246 253 167 50 2 0 0 0 0 0 0 0 0 0 0 5
755 253 210 132 121 84 86 138 18 8 98 72 203 258 109 100 377 280 115 3 0 0 0 0 0 0 0 0 0 0 0 1
260 266 133 104 27 21 47 24 3 18 14 99 252 166 102 193 236 169 58 7 0 0 0 0 0 0 0 0 0 0 0 1
235 236 182 37 82 81 16 7 4 12 77 113 221 98 75 47 194 219 134 158 93 12 0 0 0 0 0 0 0 1 0 2
131 71 80 31 39 7 24 11 8 55 77 106 220 120 83 12 66 110 179 222 137 14 0 0 0 0 0 0 0 0 0 3
32 24 9 31 23 9 35 20 12 25 63 88 112 101 55 66 55 40 15 54 23 3 0 0 0 0 0 0 0 0 0 0
11 16 22 24 52 44 33 22 18 21 49 98 82 89 108 57 31 15 6 23 2 0 0 0 0 0 0 0 0 0 0 0
2 4 20 28 46 35 39 28 35 94 72 53 65 75 105 52 40 24 40 1 0 1 0 0 0 0 0 0 0 0 0 0
3 6 17 33 41 12 6 15 103 59 51 42 36 58 76 35 14 77 83 28 24 8 7 13 6 5 9 4 0 0 0 0
23 8 3 1 4 0 3 4 6 56 61 50 81 62 50 47 34 78 119 101 148 114 73 48 42 54 46 45 33 17 5 0
24 0 1 3 0 0 4 8 0 60 4 21 20 76 44 58 63 112 153 154 218 182 139 108 162 79 99 182 134 55 41 24
11 0 5 2 5 43 33 4 6 0 2 2 6 42 75 41 21 18 84 168 166 196 176 212 269 135 131 228 252 226 211 58
11 5 0 0 1 4 10 31 11 5 7 3 5 56 59 56 15 25 73 183 187 282 239 286 321 339 140 144 218 203 181 127
10 6 20 0 0 0 0 0 17 12 11 0 1 12 60 57 57 69 87 131 253 322 280 310 345 372 345 224 115 85 37 111
10 8 10 11 5 0 0 0 2 5 1 0 9 1 0 48 56 116 155 189 275 307 334 379 387 322 268 338 299 232 169 125
2 2 3 13 17 17 7 24 22 2 0 0 4 9 8 0 19 54 76 100 80 178 199 293 266 373 271 302 334 340 308 156
0 0 0 4 12 15 17 22 40 25 12 0 5 6 10 26 48 27 42 64 67 154 227 174 228 289 298 283 282 285 334 109

GFSFLT2_con_mucape_075.txt.gz
CAPE
1624 1405 650 580 494 66 45 305 889 1301 1311 1227 1090 797 557 619 573 496 256 147 138 19 7 0 0 0 0 0 0 3 6 4
1449 1332 1082 899 820 301 276 307 369 797 998 924 656 507 588 510 463 340 197 127 60 6 1 0 0 0 0 0 0 0 4 1
841 1358 1285 1350 822 592 356 290 318 356 621 448 231 220 331 302 303 232 152 72 11 8 3 1 0 0 0 0 0 11 8 3
1226 1141 1031 966 424 267 234 398 619 243 274 106 40 89 332 307 336 172 96 0 4 3 1 0 0 0 0 0 3 8 13 2
912 1022 926 767 482 476 341 223 186 155 32 27 16 118 250 254 339 189 6 0 0 0 0 0 0 0 0 4 2 7 18 3
748 383 175 78 8 20 150 237 72 24 7 5 79 58 230 416 241 144 0 0 0 0 0 13 0 0 0 0 1 11 14 2
639 334 123 78 20 0 21 26 31 28 3 19 24 66 187 258 262 154 3 1 0 0 8 2 2 0 0 4 6 13 7 5
262 415 109 52 19 5 10 6 17 40 5 16 77 65 148 286 283 240 170 150 8 6 7 0 0 0 1 7 8 10 14 8
160 51 151 22 38 22 3 14 3 12 9 3 63 102 220 278 352 364 255 255 212 91 0 0 0 0 0 0 1 4 13 17
25 20 5 2 3 8 12 30 18 33 64 67 75 159 173 241 226 303 306 302 173 30 0 0 0 0 0 0 0 0 3 10
34 8 6 4 9 5 6 7 12 2 64 50 82 131 168 179 147 169 254 182 178 57 9 0 0 0 0 0 0 0 0 0
30 16 2 1 5 26 27 4 0 11 3 11 90 143 167 165 160 180 102 92 58 16 65 6 1 0 0 0 0 0 0 0
46 31 23 0 3 0 0 16 2 0 2 7 62 88 132 157 166 217 191 113 72 145 59 93 23 7 0 0 0 2 0 0
24 19 28 0 5 0 0 3 6 9 7 0 19 70 64 77 97 131 175 112 197 226 240 137 124 88 14 62 41 15 24 26
17 19 0 0 0 19 8 4 1 2 0 5 4 52 63 57 81 128 183 202 211 228 281 243 239 135 184 271 208 185 319 146
13 19 16 0 24 1 0 0 5 0 1 3 1 5 71 59 56 76 177 190 174 354 350 342 216 156 93 151 327 414 117 183
8 2 25 0 19 18 2 0 2 9 1 5 2 2 25 71 45 42 41 95 109 259 264 258 242 201 169 396 207 215 373 187
4 9 16 18 17 34 29 97 26 0 2 10 1 1 0 26 16 32 23 43 24 143 247 214 294 283 113 416 239 210 177 277
2 4 22 11 20 29 42 57 59 0 29 1 6 0 0 0 12 22 2 0 35 35 144 219 108 56 157 194 216 267 355 283
4 1 17 35 13 27 21 19 18 36 16 1 43 0 0 4 0 0 0 1 59 75 65 165 80 182 251 356 185 301 339 327

GFSFLT2_con_mucape_078.txt.gz
CAPE
1709 1093 671 488 349 220 54 30 13 95 1169 1325 1167 915 764 791 728 634 517 154 39 20 0 0 0 0 0 0 0 5 0 0
1754 1901 1195 690 643 129 48 57 1 79 761 908 604 581 614 625 392 333 248 122 50 6 0 0 0 0 0 0 0 17 0 0
1178 1487 1438 1132 992 542 153 118 0 100 601 531 365 400 462 380 151 111 105 67 20 13 0 0 0 0 0 0 0 1 0 0
987 928 1017 636 560 480 216 129 156 120 128 228 239 214 204 144 171 87 55 33 28 3 0 0 0 0 0 0 0 11 0 0
1231 1153 916 532 307 340 119 222 144 136 133 113 88 8 33 101 119 50 5 1 0 0 0 0 0 0 0 0 0 4 0 0
677 766 375 245 227 193 284 265 190 107 48 53 4 9 20 93 110 23 0 0 0 0 0 0 0 0 0 0 0 1 0 0
685 462 124 8 0 8 87 101 106 65 48 18 6 10 13 31 77 15 0 0 0 0 0 0 0 0 3 0 11 1 0 0
658 392 140 2 0 0 3 8 47 63 13 5 17 7 36 50 76 1 2 0 0 0 0 0 0 0 0 0 13 9 0 0
444 348 111 61 2 0 1 34 6 20 13 3 3 16 25 71 65 24 27 4 0 0 0 0 0 0 0 0 1 22 0 0
251 73 83 26 29 0 0 7 7 11 5 3 9 11 15 112 113 97 111 29 4 3 0 0 0 0 0 0 0 4 12 0
104 12 54 12 7 3 0 1 9 1 0 3 3 16 33 91 153 194 216 118 114 9 5 0 0 0 0 0 0 0 0 2
37 11 0 5 3 1 12 11 3 3 1 4 1 0 27 74 61 81 79 103 80 4 12 2 0 0 0 0 0 0 0 0
8 3 3 0 4 0 1 0 0 11 4 0 0 0 20 57 75 84 75 65 49 5 25 3 5 0 0 0 0 0 0 0
7 12 2 0 0 1 1 1 0 3 5 6 9 0 23 43 56 65 97 95 33 75 27 48 29 13 0 0 0 0 0 0
4 14 14 3 3 0 0 0 4 9 0 0 1 1 42 49 82 77 76 57 104 76 74 81 54 16 29 25 53 17 20 14
0 4 6 3 6 3 0 0 0 2 7 3 5 2 17 25 52 83 97 97 102 112 159 171 161 67 42 14 64 144 38 38
0 0 6 10 0 1 6 5 5 0 4 1 6 5 16 30 11 48 63 85 104 118 157 198 139 101 47 84 45 58 73 12
0 0 9 9 0 3 10 53 3 0 2 1 6 0 5 1 14 10 45 73 97 152 160 178 135 79 56 78 43 67 61 59
10 0 5 9 14 6 0 0 0 0 0 6 3 1 4 1 0 4 7 35 55 88 100 109 64 26 33 30 52 101 71 86
0 0 0 2 3 5 3 3 9 2 0 2 0 0 1 1 10 9 7 1 5 5 4 43 37 45 32 34 25 41 75 126

GFSFLT2_con_mucape_081.txt.gz
CAPE
1435 1123 1002 608 272 308 132 37 64 0 0 32 544 1024 905 865 767 693 529 333 147 32 3 0 0 0 0 0 0 0 0 0
1192 1154 872 448 321 158 79 36 6 15 0 8 623 637 658 610 584 486 329 216 58 13 0 0 0 0 0 0 0 0 0 0
977 1266 1226 623 399 191 79 14 46 37 33 1 453 377 390 337 237 192 132 52 17 0 0 0 0 0 0 0 0 0 0 0
728 809 937 701 579 224 52 72 31 7 23 64 221 243 220 161 103 72 70 1 0 0 0 0 0 0 0 0 0 0 0 0
754 714 604 433 473 279 159 69 30 0 2 91 181 152 142 35 12 3 2 1 0 0 0 0 0 0 0 0 0 0 0 0
921 836 563 428 250 202 132 54 30 32 96 110 123 94 31 3 2 0 0 0 0 0 0 0 0 0 0 0 0 0 0 0
566 476 474 446 300 117 46 62 52 31 63 78 38 22 14 0 1 0 0 0 0 0 0 0 0 0 0 0 0 0 0 0
440 274 194 1 9 1 41 51 45 43 62 44 13 8 30 0 4 0 0 0 0 0 0 0 0 0 0 0 0 0 0 0
371 159 10 0 0 0 0 26 18 29 45 55 11 15 25 8 5 0 0 0 0 0 0 0 0 0 0 0 0 0 0 0
266 182 58 0 0 0 3 21 10 31 39 7 6 11 23 9 6 0 0 0 0 4 3 0 0 0 0 0 0 0 0 0
95 72 125 12 0 0 1 0 4 20 18 18 8 7 4 4 2 1 0 2 0 4 5 0 0 0 0 0 0 0 0 0
5 7 25 22 9 4 7 5 2 0 20 7 9 1 5 3 14 45 42 36 0 13 9 0 0 0 0 0 0 0 0 0
0 51 0 35 12 0 5 0 3 3 19 12 7 1 5 20 3 41 86 73 5 19 8 0 0 0 0 0 0 0 0 0
0 1 7 7 2 6 5 1 0 1 10 16 14 11 8 9 10 22 34 53 42 21 7 0 0 0 0 0 0 0 0 0
0 1 2 3 3 6 0 0 0 0 3 9 10 3 4 3 6 18 37 35 34 38 8 5 0 0 0 0 0 0 0 0
0 0 0 1 7 0 1 0 7 0 0 0 1 11 10 3 1 2 7 33 50 23 19 0 7 0 0 18 25 36 19 9
0 0 3 6 0 0 3 0 0 0 0 4 2 4 17 6 1 10 24 46 44 48 13 38 34 2 0 3 20 53 53 17
0 0 4 1 0 0 2 2 0 2 0 0 16 11 10 0 2 2 0 48 59 36 73 100 73 57 21 15 14 30 43 33
0 0 0 2 3 3 2 1 3 2 1 0 19 14 5 6 0 8 5 36 55 82 96 99 117 95 64 47 39 30 27 28
44 0 0 0 4 2 2 5 1 1 6 5 6 13 15 18 6 1 10 28 63 115 126 129 122 89 49 37 32 25 37 59

GFSFLT2_con_mucape_084.txt.gz
CAPE
1400 1127 981 789 737 549 366 270 332 150 148 102 211 202 408 612 630 743 622 532 508 383 181 15 0 0 0 0 0 0 0 0
1231 950 1384 866 559 390 165 234 98 45 146 104 257 201 251 501 526 592 461 404 308 206 33 5 0 0 0 0 0 0 0 0
1118 804 758 564 476 336 228 115 71 55 51 69 43 10 179 250 318 340 339 193 110 34 0 0 0 0 0 0 0 0 0 0
702 1033 1087 829 552 373 189 71 73 61 50 8 28 179 129 259 229 191 160 76 37 0 0 0 0 0 0 0 0 0 0 0
543 856 980 709 713 475 201 83 62 57 15 11 167 145 151 221 164 73 10 0 0 0 0 0 0 0 0 0 0 0 0 0
591 817 614 579 668 550 209 87 89 67 130 166 122 101 121 124 61 6 0 0 0 0 0 0 0 0 0 0 0 0 0 0
725 674 661 457 336 480 169 104 52 46 63 112 93 77 97 104 26 1 0 0 0 0 0 0 0 0 0 0 0 0 0 0
633 565 389 434 366 190 210 61 40 68 97 78 69 64 103 80 9 2 1 0 0 0 0 0 0 0 0 0 0 0 0 0
395 235 72 32 8 69 97 133 45 50 102 75 77 63 51 1 5 3 0 0 0 0 0 0 0 0 0 0 0 0 0 0
314 177 62 0 0 0 1 6 20 33 91 99 67 36 2 1 27 15 0 0 0 0 0 0 0 0 0 0 0 0 0 0
201 106 33 1 0 0 0 9 19 29 42 59 43 30 1 8 12 2 0 0 0 0 0 0 0 0 0 0 0 0 0 0
77 47 7 5 0 3 1 7 0 21 18 36 56 27 8 8 10 1 0 0 0 0 0 0 0 0 1 0 0 0 0 0
0 0 3 2 3 1 19 0 1 14 41 53 53 19 14 4 8 6 0 0 3 6 0 0 7 3 0 0 2 0 0 0
0 0 5 10 4 3 0 0 0 7 20 13 25 9 7 18 3 1 8 7 20 20 22 5 3 14 5 0 2 2 2 7
0 0 5 4 1 10 4 0 0 0 6 8 24 6 6 7 8 14 1 16 11 30 29 8 6 13 8 1 1 0 0 1
0 0 5 7 4 3 3 0 0 0 0 12 15 4 8 21 11 2 32 34 52 54 37 28 13 8 12 9 0 0 0 0
0 0 1 0 5 3 3 4 0 0 0 0 2 6 9 2 12 8 30 53 76 56 48 47 8 1 0 20 59 50 17 11
6 0 1 1 18 3 3 0 0 1 0 0 0 2 5 11 2 2 4 43 45 42 33 26 55 11 7 4 44 66 37 20
36 0 0 2 11 6 4 5 0 0 0 0 4 1 8 12 1 6 6 5 26 30 0 30 41 33 3 0 5 23 47 42
65 0 0 0 4 9 2 6 0 0 2 0 0 0 4 1 3 0 3 0 0 17 54 63 69 45 38 18 3 17 33 32

GFSFLT2_con_mucape_087.txt.gz
CAPE
1248 1442 1630 1653 1468 1396 1045 945 416 232 124 215 337 216 192 159 432 597 664 597 545 562 442 76 52 4 0 0 0 0 0 0
1256 1207 910 893 786 745 968 652 335 333 320 160 327 277 104 171 256 299 336 655 477 388 123 0 3 1 0 0 0 0 0 0
1204 918 590 669 604 595 520 334 158 188 228 345 172 37 204 88 104 140 241 323 362 162 24 9 3 0 0 0 0 0 0 0
943 910 488 535 502 488 358 246 172 114 95 198 181 97 167 116 96 112 165 203 166 90 21 11 9 0 0 0 0 0 0 0
709 897 635 577 516 516 388 270 125 80 80 55 170 90 191 142 141 136 103 69 56 55 2 0 0 0 0 0 0 0 0 0
349 791 732 722 555 400 304 204 94 43 62 89 86 80 77 104 133 98 59 33 4 1 0 0 0 0 0 0 0 0 0 0
370 699 683 620 654 670 444 173 70 64 63 56 45 84 98 117 90 83 29 24 8 0 0 0 0 0 0 0 0 0 0 0
403 659 561 513 512 526 470 191 81 58 79 74 90 102 84 92 36 82 5 5 0 0 0 0 0 0 0 0 0 0 0 0
489 520 520 397 272 183 183 160 60 66 65 99 90 100 104 73 62 85 0 0 0 0 0 0 0 0 0 0 0 0 0 0
449 428 286 169 193 174 104 54 91 47 46 75 86 69 67 75 110 31 0 0 0 0 0 0 0 0 2 0 0 0 0 0
334 202 61 27 7 0 18 24 62 41 77 75 55 43 55 69 90 0 1 0 0 0 0 0 5 11 10 2 3 0 0 0
248 100 40 10 0 0 3 9 14 23 26 30 39 52 72 49 5 20 0 0 0 0 3 2 4 12 7 7 4 0 0 0
123 49 19 0 0 0 2 7 10 8 37 7 34 55 62 13 16 11 0 0 0 0 0 6 4 0 4 8 9 1 0 0
72 8 4 0 0 0 0 5 4 4 3 16 29 55 27 20 3 17 4 0 0 0 0 9 4 0 12 9 13 3 9 1
118 0 1 0 0 1 0 1 0 0 7 18 31 42 31 36 8 12 9 0 0 5 0 3 3 1 10 17 17 12 27 23
44 0 8 0 0 0 2 0 0 0 3 4 7 10 38 15 9 7 15 2 2 0 26 20 18 23 26 33 25 1 28 20
52 24 6 3 0 0 0 2 0 0 0 3 5 13 38 5 7 16 21 18 4 7 0 66 75 35 43 38 31 6 1 0
65 32 3 2 3 0 0 0 0 2 1 0 0 21 14 5 33 17 8 5 1 1 2 58 77 45 31 32 29 33 30 26
83 41 18 2 10 6 2 2 0 1 1 0 0 0 3 13 2 1 17 10 5 12 25 74 66 46 40 31 43 47 50 49
88 60 31 0 2 3 2 0 0 0 0 0 0 1 2 14 0 0 4 12 11 26 34 29 44 21 18 23 24 18 70 84

GFSFLT2_con_mucape_090.txt.gz
CAPE
1214 2454 1907 1529 1446 1147 1006 762 593 678 523 404 431 347 355 512 577 599 765 894 880 771 442 303 161 100 50 10 0 0 0 0
1719 1923 1768 1658 1582 1267 1075 809 497 377 366 559 180 108 67 512 427 274 314 677 722 422 199 185 71 22 1 0 0 0 0 0
1246 1208 1472 1237 1130 1047 1019 908 668 427 477 405 207 94 199 181 206 295 370 213 250 208 90 61 17 0 0 0 0 0 0 0
1118 848 607 560 780 639 825 808 545 330 242 153 223 170 62 125 118 161 182 133 167 138 23 5 14 0 0 0 0 0 0 0
924 948 539 384 371 255 495 435 400 191 100 117 170 121 113 59 75 126 130 101 104 64 3 0 0 0 0 0 0 0 0 0
568 708 670 369 333 337 383 380 305 245 157 50 94 72 158 97 82 112 120 70 58 14 0 8 6 1 0 0 0 0 0 0
285 446 642 388 282 416 371 312 145 106 31 36 94 63 75 130 145 128 98 49 48 52 9 19 8 0 0 0 0 0 0 0
195 296 594 305 248 467 257 327 116 91 26 32 62 99 76 122 136 112 69 56 41 33 8 22 4 0 0 0 0 0 0 0
226 239 485 396 418 497 199 322 81 127 51 90 59 18 86 60 76 87 73 36 26 59 32 9 5 0 0 0 0 0 0 0
309 229 483 370 283 352 183 14 89 104 123 42 34 63 57 16 16 27 58 24 21 27 2 1 0 0 0 0 0 0 0 0
387 244 433 356 159 78 116 37 28 72 70 42 37 54 21 29 21 61 66 33 15 11 0 0 0 0 0 0 0 0 0 0
414 278 332 235 40 3 3 154 19 17 14 41 42 27 75 43 60 70 80 17 11 11 0 0 1 0 0 0 0 0 0 0
420 265 159 28 0 0 3 5 7 32 6 11 23 47 38 64 57 76 56 11 33 7 0 8 13 3 13 5 0 0 0 0
388 219 82 18 0 0 0 7 11 8 9 12 29 11 29 56 51 78 38 1 39 14 0 2 5 13 8 7 4 0 0 0
352 221 56 13 2 1 0 3 1 0 3 13 8 8 9 17 40 19 6 7 0 0 0 8 3 17 19 22 13 5 2 7
290 267 40 0 0 0 0 0 0 0 0 0 19 1 24 49 43 22 27 12 5 0 13 28 15 8 27 37 23 18 24 23
320 252 95 23 1 1 1 0 0 0 3 0 15 9 12 5 40 13 10 16 12 0 0 12 12 19 30 56 45 35 23 0
325 206 36 26 1 5 1 0 0 0 0 0 1 10 0 22 19 6 16 8 7 0 1 0 34 31 37 72 61 36 6 6
241 108 39 42 7 3 1 0 0 0 0 0 0 2 1 6 4 11 5 5 15 9 0 0 0 16 74 72 57 51 52 27
95 71 61 55 7 2 4 0 0 0 4 2 0 0 0 14 15 14 27 11 6 16 3 0 6 0 31 73 63 47 49 50

GFSFLT2_con_mucape_093.txt.gz
CAPE
1856 1909 1560 1342 1327 1185 1249 1027 1006 1077 920 1062 913 703 628 600 630 797 786 672 890 915 655 426 313 219 105 24 4 1 21 5
1740 1582 1758 1804 1535 1097 1005 825 792 742 740 511 348 285 206 307 248 599 597 473 732 705 379 305 255 205 82 37 8 5 0 0
1523 1553 1655 1543 1238 1117 1054 761 741 559 483 384 206 158 154 154 110 168 478 294 495 424 294 253 226 174 94 31 4 0 0 0
1613 1451 1170 1249 977 1047 884 1255 1012 887 608 575 555 412 342 205 331 210 288 138 214 237 228 235 157 100 39 0 0 0 0 0
1440 1569 1008 1129 677 841 798 1169 1273 1097 792 426 605 709 479 326 596 764 442 169 117 166 145 140 91 23 0 0 0 0 1 4
952 1331 1043 463 539 470 482 466 998 927 802 478 569 406 338 337 239 482 462 167 98 94 202 99 17 4 0 0 0 0 0 11
747 1078 1029 516 536 179 186 354 360 533 357 224 366 123 356 361 205 385 133 73 29 69 108 33 1 0 0 0 0 0 0 16
555 735 416 682 395 522 134 222 452 534 176 110 207 172 366 462 270 241 222 72 55 91 78 10 0 0 0 0 0 0 1 7
273 229 471 627 983 528 227 170 134 19 59 95 34 176 271 368 137 113 126 19 50 68 78 54 43 0 0 0 0 0 2 5
244 94 549 524 787 645 290 305 10 47 8 34 104 57 66 68 90 40 23 16 14 46 98 103 62 0 0 0 0 0 4 9
379 153 288 258 454 434 733 253 74 29 25 76 68 50 42 60 79 42 48 17 30 31 103 99 39 1 0 0 0 0 2 9
444 201 360 214 318 295 428 66 31 34 29 67 43 23 38 29 11 19 46 7 46 57 132 96 68 0 0 0 3 6 6 15
365 200 268 163 167 113 78 3 15 25 29 73 20 1 27 34 7 13 9 15 20 53 77 27 30 0 0 0 0 0 4 6
137 147 293 167 179 14 0 0 3 19 16 8 30 9 27 30 7 32 35 45 38 42 37 10 7 0 0 8 0 0 0 8
23 104 307 188 90 0 0 10 3 14 28 33 50 23 31 41 44 40 32 22 7 4 9 12 0 4 8 41 21 9 10 8
25 77 320 206 40 0 1 3 8 12 0 0 3 3 11 27 20 34 32 25 0 5 29 9 11 11 20 31 28 34 84 23
33 96 307 216 28 0 0 4 2 15 0 5 12 12 4 7 38 20 32 23 2 1 29 17 13 43 20 33 42 36 28 68
40 53 282 184 10 0 3 1 2 23 0 0 1 10 3 3 15 7 15 15 12 6 5 4 1 42 29 37 36 48 44 73
45 64 215 123 1 2 1 1 1 13 0 0 0 1 3 3 23 16 36 11 21 21 9 0 2 0 20 46 40 69 72 83
73 81 227 131 15 0 4 2 9 17 4 0 0 3 7 4 22 22 9 9 10 7 18 9 20 0 0 20 34 73 68 74

GFSFLT2_con_mucape_096.txt.gz
CAPE
1885 1655 1358 1053 1148 1267 1354 1382 1390 1402 1473 1574 1421 1110 989 943 799 773 701 184 252 532 550 466 351 287 241 183 97 121 280 204
1723 1658 1582 1860 1900 1153 1203 1078 1117 1130 1103 1021 839 761 759 742 539 632 619 669 663 599 366 291 280 228 204 163 53 88 180 151
1556 1641 1906 2129 2188 1534 1054 969 914 803 825 786 659 1128 908 518 414 489 688 676 451 295 247 186 235 221 185 141 67 225 139 38
1465 1880 1958 2005 1891 1980 1705 1638 1314 1425 1284 907 1120 1119 970 467 234 45 152 171 201 140 180 107 204 246 195 152 185 155 114 57
1158 1519 1664 1959 1705 1741 1464 1352 1223 962 1253 1162 1025 944 745 570 647 769 621 284 500 100 98 288 317 348 142 204 132 117 32 35
1112 1229 1508 1817 1723 1332 1163 1052 856 1009 995 960 1154 1122 1001 890 803 829 607 763 390 291 140 284 306 276 231 170 69 48 48 36
1268 1061 1221 1527 1477 1141 997 997 814 810 763 843 750 887 853 714 871 761 609 476 408 348 149 269 317 210 176 98 68 27 22 21
1575 1155 1037 1178 1218 905 688 618 933 801 612 968 677 792 763 767 738 792 613 290 233 135 254 290 360 189 161 120 70 20 11 16
1707 1112 962 1152 992 709 795 352 771 675 328 380 589 684 577 534 766 618 206 66 178 66 208 221 223 153 171 138 75 10 12 17
1360 1158 617 744 841 411 392 580 286 334 251 162 175 343 348 401 328 647 155 41 86 42 132 187 181 168 150 106 13 13 17 21
1292 1348 760 649 617 434 561 408 188 183 191 190 287 246 210 183 189 184 47 50 8 33 185 216 172 152 145 111 12 28 39 33
1180 1372 908 537 479 247 403 327 304 224 291 237 273 187 76 54 84 50 26 49 22 10 130 183 241 155 97 87 37 80 72 14
948 1371 828 497 224 342 397 210 177 158 380 158 192 50 51 6 60 57 43 41 6 16 163 158 186 167 79 78 38 37 20 15
764 1245 486 404 502 515 156 156 192 81 102 64 112 31 4 41 31 9 33 3 14 21 174 136 114 135 67 64 44 40 34 20
577 1099 247 346 704 445 72 15 7 33 68 20 4 10 3 28 36 26 15 8 7 72 145 130 104 122 141 73 57 51 36 32
498 867 292 234 514 436 285 23 5 21 5 35 16 2 1 25 7 11 10 24 11 16 83 167 114 110 134 122 92 95 57 60
580 396 471 150 243 569 293 170 1 24 12 42 38 6 34 24 13 5 19 35 39 67 116 165 128 113 82 78 94 109 144 100
764 171 385 133 273 311 292 65 1 26 15 39 1 0 3 0 32 24 31 38 46 29 27 25 27 102 109 171 128 82 115 88
592 269 378 128 284 229 39 11 4 30 19 25 3 1 6 1 36 16 36 48 52 34 6 52 65 1 44 129 132 98 89 77
385 741 236 138 252 249 33 3 1 30 13 30 22 0 1 1 3 37 13 32 30 17 0 7 26 0 76 153 106 137 151 104

GFSFLT2_con_mucape_102.txt.gz
CAPE
1507 1231 1054 1022 1045 1238 1172 1066 1201 1255 1356 1363 1512 1420 1230 955 941 906 800 625 673 742 461 262 189 176 259 286 197 177 284 237
2122 1845 1387 1328 1273 947 1079 1036 960 988 1055 1212 1309 1196 1053 894 817 858 860 794 670 498 372 233 172 130 112 169 150 177 236 172
2742 2437 1986 1910 1748 1175 833 829 767 742 873 1086 1198 1110 894 746 748 710 696 578 362 228 252 186 137 89 89 70 138 198 118 76
2387 2507 2317 2396 1603 1415 1421 1307 1029 1101 1276 1102 1479 1186 856 691 488 450 428 352 265 233 223 100 96 51 60 66 89 142 88 73
2077 2166 2466 2406 1756 2093 1722 1600 1511 1336 1473 1436 1439 902 883 520 279 462 288 218 216 219 122 68 58 41 68 67 109 103 68 36
2169 1953 2316 2208 2215 2143 1868 1533 1459 1227 1578 1648 1405 1112 942 641 445 377 459 295 331 175 120 95 23 24 64 113 119 186 52 49
1993 1868 2031 2153 2488 1511 1712 1636 1541 1329 1492 1415 1182 1064 941 730 574 594 483 398 324 189 144 104 41 25 86 84 225 109 40 51
2119 1936 1943 2033 2065 1889 1592 1239 1196 1275 950 1181 1475 1020 855 729 579 534 680 459 392 256 205 117 41 56 100 87 174 128 35 33
2247 2072 1562 1806 2064 2011 1334 1012 1242 1193 929 966 1132 1074 1083 720 578 654 683 443 516 287 116 99 63 86 78 73 120 56 19 11
2417 2190 1667 1393 2017 1848 1365 937 1039 1107 1071 847 730 720 696 667 624 658 594 475 338 147 69 72 46 50 59 57 45 10 10 0
2241 2148 1577 1213 1605 1865 1514 1051 791 798 892 1018 937 751 604 570 417 422 209 230 305 214 91 21 39 44 54 57 29 0 0 2
2359 2288 1702 1257 1139 1651 1280 1315 880 751 745 631 518 724 623 602 344 249 172 232 199 195 74 79 41 34 145 91 34 6 0 10
1642 2385 2128 1649 1018 973 1312 826 705 354 561 673 411 389 334 295 193 155 157 200 90 143 65 95 61 38 57 33 67 41 13 19
100 1904 2296 1740 1523 889 1165 985 442 309 377 504 393 393 381 227 74 38 101 73 69 78 50 30 52 23 10 0 0 46 42 18
0 481 1966 1950 1581 898 755 817 474 681 574 472 523 267 282 142 41 2 10 50 59 54 39 15 9 9 26 0 0 0 11 18
2 0 555 1884 1632 1098 811 728 639 455 487 371 426 267 178 53 7 6 10 5 6 41 39 10 19 0 24 1 8 1 0 2
10 0 2 1629 1521 1316 918 977 708 512 358 331 214 63 0 0 0 2 0 12 34 61 44 41 40 5 0 0 1 18 20 0
42 229 79 1604 1419 1232 1156 1167 774 532 343 236 31 1 0 0 0 0 0 12 35 25 5 15 37 12 13 7 5 17 5 0
0 24 134 1394 1363 1278 1450 1180 1135 664 313 70 45 1 2 0 0 0 3 8 12 11 19 29 2 21 22 31 72 82 62 47
0 5 338 1134 1049 1107 1340 1207 1139 632 335 177 56 1 11 0 1 0 2 4 9 4 12 9 18 31 43 58 59 39 40 29

GFSFLT2_con_mucape_105.txt.gz
CAPE
858 1026 1013 1082 1143 1026 1000 1179 1230 1242 1368 1501 1548 1404 1103 798 900 883 479 374 272 408 151 218 384 342 163 189 183 180 233 189
804 821 890 844 926 1015 890 816 904 937 1121 1225 1393 1342 936 773 778 867 413 315 322 618 420 226 151 103 99 139 90 154 207 116
1110 908 830 864 797 829 923 829 723 662 780 1072 1181 1077 790 702 669 687 546 494 602 482 264 130 63 64 77 69 68 100 109 77
1720 1305 1119 1136 1092 782 734 700 560 483 637 983 1052 910 764 616 594 586 533 469 332 291 186 67 29 12 58 66 28 76 70 80
2050 1828 1566 1601 1370 871 814 743 539 573 798 812 910 667 609 568 453 404 366 264 147 83 43 24 22 7 28 23 28 79 56 68
1994 1865 1770 1890 1549 1172 1191 1196 963 705 787 893 756 559 565 354 294 222 191 183 134 92 43 11 9 2 0 18 58 88 51 58
2152 1800 1929 1802 1834 1569 1435 1387 1230 1011 1038 924 669 589 574 400 278 295 213 235 203 136 81 20 17 10 4 70 98 77 45 35
2150 1827 1862 1848 2044 1734 1518 1441 1141 893 1001 979 753 661 531 434 314 360 517 184 156 71 62 37 43 16 11 56 79 59 50 48
2054 1828 1543 2050 1667 1570 1257 1362 1108 1011 1085 1109 765 596 616 492 284 297 189 116 239 153 69 59 49 11 27 60 79 46 37 42
1911 1749 1548 1945 1938 1648 1266 896 813 912 866 638 1028 816 630 465 341 222 178 190 192 136 94 104 45 8 31 33 84 39 35 15
1786 1827 1678 1543 1852 1687 1438 1188 860 1124 885 670 822 989 785 516 356 289 275 193 263 143 107 72 64 13 37 43 52 11 29 6
1783 1841 1762 1497 1590 1884 1713 1454 1113 1028 985 663 568 536 630 715 564 443 296 158 199 195 144 63 53 29 81 72 44 8 13 0
1891 1815 1779 1572 1243 1829 1587 1326 1016 652 729 826 785 623 606 517 462 396 322 239 167 170 137 67 12 26 78 53 34 11 2 0
1896 1772 1722 1520 907 1527 1365 1122 1027 797 512 603 582 526 479 502 509 369 242 134 105 124 126 73 38 31 35 10 8 0 0 14
1944 1800 1626 1502 1208 1005 1192 858 696 1002 598 346 459 442 435 251 231 270 94 55 66 105 106 92 45 22 45 12 0 0 0 26
0 1897 1703 1497 1420 1119 709 408 330 410 187 350 229 305 225 257 269 90 4 12 80 64 93 89 38 18 52 14 2 0 0 0
0 0 825 1703 1530 1270 933 689 306 353 433 299 316 438 338 245 128 28 1 9 3 8 52 78 38 28 32 8 8 0 0 0
0 0 0 430 1312 1381 1088 737 469 448 353 338 291 307 289 147 27 151 94 0 1 17 67 23 35 28 24 16 3 6 0 0
0 0 0 0 1106 1222 1330 1112 877 699 574 501 270 239 176 92 60 47 5 0 0 5 7 49 17 30 14 7 6 8 1 13
0 0 0 1 1074 1189 1358 1233 930 883 706 581 274 276 125 1 4 0 0 0 0 3 29 27 35 25 28 3 5 12 40 46

GFSFLT2_con_mucape_108.txt.gz
CAPE
851 1045 1158 1240 1273 1321 1499 1608 1717 1680 1522 1491 1521 1353 1129 1085 520 363 329 796 681 294 234 283 519 514 284 289 264 304 263 252
840 977 1099 1078 1055 1094 1268 1307 1401 1527 1561 1436 1382 1153 981 857 596 521 546 652 452 343 148 227 249 217 216 194 187 288 255 222
806 880 954 962 969 934 1020 1172 1149 1134 1290 1390 1343 1105 895 769 619 429 342 256 449 411 261 165 132 83 125 115 106 190 187 172
671 750 854 809 848 965 845 818 825 878 1057 1148 1241 1086 776 584 543 454 363 273 292 507 269 93 40 17 49 93 110 165 156 163
1081 722 788 860 864 832 800 740 573 520 868 1067 1069 935 617 605 564 468 329 324 367 338 164 73 7 18 50 61 89 158 156 148
1682 1204 1021 1147 1104 740 667 572 397 525 704 1002 974 805 639 532 575 500 336 216 286 170 95 29 2 0 31 44 37 100 133 126
1933 1746 1472 1509 1488 882 762 655 502 541 683 872 899 711 614 550 535 437 264 203 216 142 93 48 32 20 25 18 32 85 88 81
1951 1975 1723 1806 1855 1382 1041 1076 871 676 763 809 714 521 534 455 397 359 225 178 130 130 116 102 51 24 33 29 45 55 59 67
2086 2077 1777 1764 1901 1726 1323 1308 1200 959 927 771 659 376 468 407 350 289 140 206 110 119 130 90 18 38 35 25 40 50 59 56
2121 2098 2020 1628 1865 2013 1625 1397 1319 1090 1040 999 827 553 461 425 350 315 265 274 104 98 73 44 54 53 57 39 32 37 51 46
2102 2042 2071 1684 1641 2058 1650 1568 1491 1028 934 994 868 744 629 535 474 372 388 322 63 96 130 82 84 80 54 35 49 22 48 42
1835 1949 1959 1724 1631 1813 1721 1394 1264 1049 1029 1006 740 819 600 603 488 341 276 203 182 148 138 146 116 119 55 48 61 23 33 38
1496 1651 1795 1792 1673 1634 1712 1411 1154 962 807 837 632 831 918 603 534 394 305 230 153 133 79 140 187 80 29 56 36 43 14 50
1331 1534 1635 1723 1573 1635 1570 1505 1346 1344 1010 1122 734 499 683 858 705 556 404 293 305 191 74 69 84 56 9 37 34 59 26 38
1552 1517 1464 1581 1717 1604 1393 1432 1493 1262 893 792 797 638 454 397 502 565 527 460 371 275 179 121 79 41 35 13 9 12 0 11
1104 1840 1641 1536 1636 1456 1391 1221 1256 971 748 600 661 748 649 468 353 307 301 296 234 84 190 114 105 66 36 21 37 7 0 0
44 1156 2148 1674 1473 1334 1376 1205 1022 782 591 514 476 472 468 481 388 198 151 175 20 7 441 120 76 31 44 36 30 18 0 14
0 36 714 1233 1419 1394 1145 1029 955 687 424 406 101 138 96 343 438 174 171 52 4 7 107 64 65 72 73 19 30 9 7 1
0 0 0 3 43 933 1379 1241 924 662 499 303 137 196 96 478 811 541 154 182 17 12 29 41 61 55 54 23 31 31 3 14
1 0 0 0 0 34 938 1197 1174 917 638 538 511 336 161 320 365 351 212 129 4 11 29 13 46 22 38 19 40 24 33 3

GFSFLT2_con_mucape_111.txt.gz
CAPE
1071 1221 1324 1424 1471 1642 1705 1662 1568 1433 1498 1556 1639 1548 1187 1124 1056 1064 1102 976 878 944 789 705 661 507 513 445 406 466 372 355
937 1128 1188 1259 1274 1374 1550 1703 1636 1464 1413 1452 1470 1339 1038 763 687 751 822 798 726 428 227 343 467 353 399 346 332 371 281 259
831 1006 1028 1103 1164 1339 1478 1600 1644 1571 1429 1401 1339 1201 1003 680 481 352 594 632 357 207 110 82 181 285 309 221 296 314 223 235
665 890 899 983 1021 1155 1290 1348 1493 1532 1506 1415 1261 1110 974 790 624 546 404 336 195 155 71 40 35 141 259 134 277 257 206 209
592 674 790 830 900 934 1087 1197 1179 1220 1333 1386 1301 1063 963 789 668 604 445 191 116 191 66 4 1 10 117 142 81 154 154 153
480 538 629 699 799 854 779 831 923 993 1140 1228 1279 1092 926 691 553 514 457 327 184 117 59 0 0 0 9 41 58 145 106 124
552 438 561 624 692 707 729 702 613 625 958 1112 1196 1081 881 687 517 655 412 335 207 151 107 19 0 0 0 1 10 102 139 116
1184 704 603 741 731 631 602 597 468 470 698 1068 1076 958 796 606 703 1144 638 383 177 164 116 38 1 5 7 14 20 26 98 104
1696 1493 969 1003 1099 865 665 598 488 413 574 1012 1039 940 807 684 603 708 463 333 169 167 179 56 20 20 19 19 10 8 56 67
1990 1856 1532 1280 1359 1340 1065 808 706 523 580 721 918 883 764 639 577 538 469 300 172 125 84 101 50 51 25 35 15 7 18 52
2138 2010 1904 1695 1569 1598 1548 1181 1071 898 732 717 816 778 563 498 500 452 416 298 175 96 71 153 103 62 51 50 37 0 2 44
2266 2104 2034 1984 1779 1734 1761 1657 1252 1117 1003 957 888 807 615 418 432 388 380 287 225 218 135 93 75 89 67 80 48 12 5 20
1978 2077 2102 2031 2065 1714 1706 1947 1559 1300 1154 1074 1068 779 724 712 526 438 373 346 361 384 111 94 69 215 57 63 107 18 15 25
638 1757 1867 1920 2035 2016 1450 1668 1718 1509 1411 1077 1064 874 796 789 698 616 549 427 376 324 149 263 215 277 18 63 43 15 22 9
582 1425 1605 1738 1820 1843 1654 1411 1525 1465 1303 1129 1089 995 769 867 766 623 572 462 339 253 251 328 96 27 42 55 32 4 15 1
1043 1437 1507 1514 1701 1691 1713 1500 1113 1212 1195 1089 1041 849 733 656 878 812 567 527 721 383 101 102 83 10 31 74 52 20 4 8
1157 1608 1469 1555 1899 1798 1735 1622 1196 1080 1090 1163 1168 999 985 596 452 497 639 602 443 274 296 222 178 72 60 39 59 57 51 19
626 1277 1398 1632 1947 1930 1814 1587 1451 1153 1003 1143 1052 807 804 717 933 776 542 244 166 346 29 186 218 20 46 68 41 59 37 24
38 434 1168 1268 1398 1724 1744 1368 1340 1278 1021 955 892 693 650 424 247 571 711 611 466 103 33 51 26 13 39 51 75 42 26 3
5 9 22 161 587 579 744 1273 1302 1264 1097 1007 859 620 563 351 209 171 236 447 434 275 105 5 8 4 34 50 32 30 5 7

GFSFLT2_con_mucape_114.txt.gz
CAPE
1237 1392 1465 1600 1692 1677 1557 1422 1401 1427 1514 1740 1886 1661 1220 1195 1179 1231 1251 1287 1300 1181 994 879 905 812 748 722 671 683 503 469
1032 1216 1288 1422 1575 1666 1575 1496 1421 1409 1391 1529 1623 1498 1132 981 903 1028 1031 968 992 909 708 722 770 714 642 599 571 597 466 376
852 1155 1074 1219 1324 1569 1635 1594 1479 1370 1377 1377 1428 1304 1119 821 643 761 690 615 475 455 506 519 576 585 515 449 498 497 458 348
867 1013 929 1082 1115 1291 1571 1584 1552 1395 1334 1303 1233 1151 1020 799 528 426 419 360 118 82 37 145 354 391 440 366 404 373 310 261
718 875 862 875 951 1143 1283 1360 1468 1488 1356 1302 1206 1089 986 733 536 331 333 282 249 43 1 3 31 287 336 238 292 259 199 185
546 678 707 783 742 1205 1146 1264 1429 1503 1462 1351 1213 1094 970 833 617 530 513 386 222 72 26 2 0 61 272 258 85 202 164 172
508 646 634 649 604 709 1174 997 1207 1241 1342 1370 1275 1122 967 826 742 629 631 433 187 109 67 9 3 7 17 105 120 119 161 139
533 580 607 577 548 508 538 823 998 995 1106 1216 1315 1212 984 888 943 640 572 470 330 196 138 89 55 4 0 0 14 43 140 88
928 571 583 609 541 399 413 486 657 784 895 1015 1191 1210 1102 906 834 742 615 443 338 222 152 127 72 2 0 0 0 26 43 87
1296 769 615 625 598 447 422 442 534 536 569 809 1059 1155 1135 945 812 921 978 949 388 243 155 156 115 44 4 33 0 7 21 44
1698 1432 1142 1038 887 822 492 433 454 444 437 559 947 1062 1040 919 781 803 968 869 430 256 152 123 125 84 38 75 15 0 18 13
1749 1854 1741 1573 1377 1087 854 637 547 551 464 487 640 984 1013 903 775 634 524 517 450 262 169 96 39 88 119 74 37 4 28 78
1838 1978 1924 1884 1805 1649 1552 1127 958 822 701 585 579 701 838 791 712 531 481 462 427 302 262 163 227 109 89 33 10 2 25 207
1655 2111 2035 1971 2042 1894 1619 1303 1310 1152 1031 917 843 757 706 693 580 438 406 404 385 369 256 221 198 102 22 46 24 5 5 46
0 1349 2094 2061 1998 1898 1832 1692 1577 1240 1472 1137 1107 1007 953 844 628 584 470 407 377 365 317 495 147 38 347 53 25 16 12 4
35 869 1700 1756 1900 1861 1821 1729 1457 1412 1363 1374 1336 1168 1084 943 696 706 552 767 986 481 331 143 141 54 33 53 90 28 24 9
297 404 898 1342 1680 1759 2271 2035 1646 1559 1386 1426 1356 1305 1115 1059 970 681 451 615 755 562 126 102 81 21 25 8 16 34 33 33
342 377 893 875 948 1697 1697 1950 1799 1538 1500 1217 1201 1171 1030 1056 956 964 826 673 464 245 212 134 90 88 116 12 28 28 58 67
463 738 731 865 1093 1306 1629 1829 1715 1645 1551 1309 1281 1103 927 1129 916 929 644 440 424 326 327 278 102 63 6 25 15 34 34 81
249 531 640 718 939 1489 1404 2074 1630 1748 1713 1565 1318 1055 897 908 938 811 739 315 328 695 433 249 334 137 16 18 12 10 25 34

GFSFLT2_con_mucape_117.txt.gz
CAPE
1792 1909 1803 1602 1668 1718 1562 1375 1407 1598 1735 1866 1965 1903 1624 1359 1386 1556 1668 1684 1513 1288 1125 1047 1038 1004 953 932 969 843 1205 1029
1504 1651 1833 2016 1905 1618 1551 1386 1339 1490 1664 1756 1782 1648 1428 1169 1101 1277 1321 1360 1204 1075 936 973 948 918 850 834 837 725 1149 1000
1295 1500 1780 1773 1619 1697 1581 1466 1350 1388 1542 1667 1729 1921 1654 1298 990 968 939 928 878 772 803 858 810 719 677 671 628 1127 944 1017
1190 1368 1421 1481 1415 1684 1739 1724 1843 1796 1776 1896 2227 1980 1850 1376 866 736 607 590 577 585 577 707 772 1146 876 587 673 631 767 431
667 895 1100 1191 1161 1588 2322 2068 1717 1675 1924 1945 1815 1605 1511 1273 1128 953 991 351 599 380 430 873 968 1123 1043 1042 974 478 751 505
587 760 871 1066 1073 1271 1962 2123 1777 1416 1630 1849 1512 1107 1087 1305 1023 1016 887 692 607 394 114 153 503 734 812 910 867 464 874 529
711 662 897 988 905 1150 1852 1881 1847 1910 1489 1382 1527 1182 972 1155 1009 824 632 569 575 473 171 54 146 429 653 622 515 720 735 784
836 573 915 966 858 931 1085 1713 1476 1502 1692 1361 1410 1111 1316 889 864 738 798 619 488 374 243 131 129 253 401 467 462 526 619 672
1189 1023 922 792 927 771 947 1231 893 1334 1195 1735 1723 1254 1212 1489 814 747 830 590 506 327 253 160 54 32 156 202 216 304 457 398
1474 1041 983 1072 916 730 559 669 1033 1257 1168 1152 1975 1241 1056 1044 1093 1320 824 602 528 369 245 165 132 78 78 82 106 160 227 395
1808 1443 1251 1312 1208 1073 876 774 999 1105 1109 861 1533 1088 1162 1037 1206 1203 735 602 590 394 295 196 142 119 77 36 80 141 139 151
2043 1671 1556 1429 1361 1060 926 795 874 971 1031 1019 844 876 1055 1081 1002 959 1038 760 1063 526 367 240 170 258 148 71 36 15 125 62
1890 1947 1598 1344 1400 1092 755 845 629 636 963 985 729 779 896 1074 986 862 908 693 1140 699 419 274 151 138 58 54 175 19 48 3
1827 2101 1985 1485 1526 1367 1384 1188 996 803 749 740 835 918 673 934 948 852 807 902 697 929 452 272 152 128 17 10 15 7 125 56
1437 1981 2259 2004 1790 1593 1456 1405 1349 1130 984 835 908 1029 751 700 751 754 736 699 916 686 431 292 190 78 165 18 18 19 4 2
117 1782 2189 2070 1642 1793 1546 1555 1412 1451 1394 1090 1586 938 753 782 592 629 635 553 502 277 580 357 187 48 17 136 29 8 27 3
0 114 1788 1678 1700 1773 1698 1723 1868 1634 1533 1332 1142 1402 906 878 824 788 687 528 535 433 219 173 299 291 47 18 71 35 34 14
9 210 728 1331 1451 1905 1807 1966 1801 1674 1574 1570 1534 1325 1215 1104 1093 941 838 640 564 466 319 289 312 194 60 40 44 29 14 27
121 145 185 248 1028 1349 1635 1545 1587 1528 1579 1658 1592 1682 1280 1329 1184 981 959 853 552 600 454 356 260 188 179 119 84 24 58 43
223 93 130 268 589 783 796 1257 1336 1518 1804 1413 1465 1526 1421 1187 940 927 934 850 662 877 396 229 319 223 137 127 74 276 88 32

GFSFLT2_con_mucape_123.txt.gz
CAPE
2883 2650 2052 1667 1728 1651 1526 1663 1944 2138 2170 2242 2225 1902 1885 1857 1949 2073 2140 2021 1848 1572 1278 1160 1137 1041 1002 1045 1035 1018 1393 1168
3067 3110 2650 2331 2140 1616 1425 1443 1694 1980 2077 2128 1998 1829 1738 1693 1731 1871 1933 1914 1756 1424 1128 1048 1036 956 923 969 924 756 1293 1010
3039 3120 2952 2744 2613 2168 1511 1358 1480 1687 1913 2013 2054 2011 2122 1981 1633 1659 1733 1652 1463 1199 1035 993 958 906 903 854 726 985 905 1211
2657 2874 2849 2740 2353 2736 2304 2020 1839 1900 1905 2232 2140 1909 2101 1776 1378 1406 1512 1422 1076 962 953 939 934 1249 1180 763 1092 848 1102 1219
2063 2650 2571 2319 2536 2277 2423 2120 1970 2104 2173 2663 2343 2275 2750 1966 2329 1751 1777 1135 1307 937 1087 1272 1028 1352 980 889 894 1066 1068 1174
86 2130 2154 2193 2419 2138 2101 2031 2126 2033 2106 2499 2816 2633 2499 2031 1847 1831 2123 1517 1480 1064 1038 1031 1320 1511 1280 1428 1048 1036 742 1167
0 1077 2191 2124 2337 2194 2240 2361 2059 1927 2076 2614 2854 2540 2594 2016 2280 1860 1809 1685 1542 1378 1482 1499 1259 1289 1381 857 1039 979 1135 958
0 44 2317 2070 2038 2926 2628 2606 2115 2212 2439 2528 2916 2778 2706 2468 2078 1877 1811 1903 1706 1639 1371 1201 1226 1303 1221 1080 849 1066 1104 919
0 0 1965 2620 2029 2148 2446 2063 2184 2053 2274 2484 2985 2687 2853 2840 2263 2203 1981 1848 1811 1653 1586 1207 1168 1037 1091 1082 947 1098 963 905
0 0 0 2862 2448 2093 2257 1911 2035 2143 2110 2075 2521 2717 2448 2837 2179 2029 2105 1686 1765 1696 1602 1277 1276 1173 1130 1033 1008 874 938 788
0 0 0 1263 2490 2240 2593 2498 2108 1807 2026 2014 2273 2357 2267 2379 2018 2097 2419 1842 1921 1717 1623 1565 1190 1137 1021 1165 1189 916 876 470
0 0 0 0 2590 2353 2058 2037 1889 1732 2005 2152 2189 2137 2432 2253 1923 1844 2072 2011 1364 1692 1818 1586 1542 1125 786 883 1102 764 904 630
0 0 0 0 2120 2337 2295 2085 1996 2020 1721 2231 2087 1887 2613 2400 2124 1752 1880 1917 1431 1420 1612 1707 1424 1527 1105 916 765 721 611 735
49 0 0 0 14 2295 2172 1964 1944 1978 1761 2170 2533 1944 1742 2051 1928 1872 1687 1862 1410 1445 1526 1422 1680 1649 1169 859 751 458 494 386
6 5 20 0 26 1980 1811 2222 1949 1800 1681 1999 2507 2123 1579 2247 1937 1671 1691 1631 1400 1607 1391 1240 1420 1445 1332 733 369 304 181 688
0 2 2 0 37 659 1715 1909 1746 1468 1714 1794 2261 2488 1670 2432 1768 1670 1801 1677 1307 1647 1406 1305 1283 741 854 1024 1390 618 156 90
0 0 14 9 0 551 2041 1637 2148 1894 1978 2013 2301 2482 2087 1497 1812 1740 1492 1714 1382 1779 1296 1244 1398 933 547 754 987 1109 1038 429
33 23 0 1 4 970 2344 1681 2162 1562 2032 2406 2201 1976 1898 2313 1583 1735 1491 1461 1231 1851 1374 1234 1192 1135 808 959 1039 946 653 674
111 101 17 89 253 882 863 1380 1433 2157 1660 1910 1901 1505 1467 2069 2322 2197 1477 1230 1130 1810 1816 1328 1237 837 838 999 1401 1062 865 591
107 154 238 324 202 639 1137 1021 843 946 528 35 1521 1627 1419 1594 1648 1868 1885 1448 1557 1464 1451 1343 1120 847 1041 1618 1518 1360 1301 883

GFSFLT2_con_mucape_126.txt.gz
CAPE
3205 2710 2013 1680 1682 1594 1713 1928 2096 2136 2174 2239 2302 2256 2106 1982 1990 1897 2097 2017 1832 1541 1272 1145 1103 1055 1001 996 959 913 735 680
3675 3109 2357 2145 2002 1583 1484 1691 1986 2128 2114 2156 2169 1934 1867 1889 1851 1829 1987 1811 1709 1381 1100 1032 1010 905 865 860 851 787 671 707
3562 3074 2998 2672 2425 1945 1453 1426 1729 2010 2084 2100 2016 2036 1885 1791 1747 1749 1813 1665 1576 1220 993 955 900 831 787 770 781 782 752 903
3340 3473 2907 3131 2635 2527 1938 1723 1695 1983 2224 2159 2243 2204 2047 1881 1711 1604 1601 1471 1359 1055 932 880 816 866 738 699 700 867 801 856
0 3401 2766 2478 2904 2879 2372 2057 1786 1819 2042 2282 2284 2096 2048 1582 1530 1446 1439 1335 1075 838 833 832 912 984 957 867 820 815 834 724
0 476 3017 2693 2542 2397 2778 2281 2060 1992 2067 2283 1977 2112 2130 1897 1756 1662 1614 1234 1253 867 937 934 991 1009 1000 1061 937 674 598 621
0 0 2840 2603 2400 2063 2459 2376 2033 1899 2071 2270 2233 2112 2189 1867 1683 1643 1603 1404 1427 938 948 952 1140 888 897 858 869 913 741 859
0 0 13 2498 2120 1926 2197 1921 2157 2408 2042 2175 2291 2318 2166 1907 1763 1699 1532 1521 1414 1180 1125 1108 1088 884 606 820 451 824 735 870
0 0 0 391 2465 2173 2004 2183 2238 1726 2532 2159 2324 2564 2298 1941 1831 1850 1629 1515 1435 1319 1209 1106 925 932 900 832 677 1036 750 620
0 0 0 0 1481 2244 1806 1611 2015 1976 2066 2374 2290 2507 2537 2313 1902 1925 1863 1585 1403 1186 1043 950 947 863 714 702 837 587 662 540
0 0 0 0 0 2105 1764 1620 1914 1954 1613 1530 2303 2508 2332 2324 2155 1851 1930 1576 1379 1155 1128 1104 1027 849 729 679 566 649 563 486
0 0 0 0 0 753 1830 1574 1346 1753 1792 1862 1942 2163 2227 1867 2003 1966 2039 1554 1267 1422 1309 1269 1185 830 760 461 633 545 467 284
0 0 0 0 0 314 1401 1447 1107 1522 1578 1932 1947 1904 1981 1707 1598 2037 2017 1834 1659 1567 1546 1417 1372 1194 704 628 503 511 484 371
0 0 0 0 0 0 313 986 1101 1175 1508 1570 1948 1813 1859 1720 2037 1520 1550 1507 1620 1314 1294 1456 1444 1196 844 734 371 533 449 401
0 0 0 0 0 0 0 0 894 855 1267 1327 2220 1985 1875 1756 1681 2107 1395 1227 1499 1136 1554 1566 1290 1112 1146 632 256 142 347 349
0 0 0 0 0 0 0 0 312 707 1140 1243 2082 1973 1822 1681 1428 2293 1970 1869 1361 1502 1566 1497 1520 1213 1211 848 642 895 384 442
0 0 0 0 0 3 6 0 340 376 1061 1173 1572 1907 1618 1543 1321 1913 1921 2068 1353 1524 1688 1667 1595 1075 1027 826 755 719 846 721
0 0 0 0 0 0 21 2 67 573 961 890 1296 1817 1631 1363 1154 1290 1705 1835 1490 1366 1790 1529 1438 1129 843 599 452 356 503 745
0 0 0 0 1 4 14 20 202 669 730 959 1094 1519 1601 1403 1046 1312 1633 1630 1750 1496 1630 1428 1432 1489 1261 656 579 611 667 556
0 0 8 22 0 8 11 7 4 191 335 250 892 1304 1495 1557 1194 933 1630 1545 1499 1212 1533 1584 1435 1091 1503 1111 1021 706 871 570

GFSFLT2_con_mucape_129.txt.gz
CAPE
3058 2828 2692 2006 1596 1667 1896 2022 2106 2125 2161 2192 2225 2223 2116 1970 1910 1799 1787 1864 1660 1378 1185 1051 1010 1026 1008 987 962 928 679 380
2946 2956 2459 2181 1533 1526 1599 1797 1978 2058 2111 2149 2168 2111 2020 1905 1866 1778 1863 1805 1608 1225 1023 987 971 914 861 851 845 816 683 604
2294 2909 2657 2413 1903 1491 1453 1543 1833 2014 2052 2038 2086 1961 1883 1829 1775 1773 1860 1719 1516 1164 904 905 860 780 731 731 751 631 550 635
2 2643 2881 2731 2416 1904 1414 1299 1500 1866 2037 2000 1954 1820 1722 1708 1716 1713 1768 1653 1467 1123 851 835 782 674 647 674 609 536 736 659
0 73 1692 2800 2564 2392 2161 1754 1297 1568 1990 2022 1919 1846 1780 1734 1623 1602 1623 1471 1338 1022 802 747 685 665 562 554 471 647 612 569
0 0 362 1890 2278 2096 2106 2319 1956 1480 1666 2141 1909 1955 2007 1695 1635 1467 1438 1339 1169 893 701 673 644 878 817 573 467 615 711 471
0 0 0 643 1956 2157 1958 1951 2287 1883 1522 1763 2106 1958 1769 1829 1602 1537 1321 1222 1102 839 665 605 688 723 841 792 744 583 521 310
0 0 0 0 1482 1977 2000 1873 2216 2082 1759 1721 2024 1645 1764 1785 1499 1380 1401 1231 1207 998 818 576 718 880 672 648 588 646 676 526
0 0 0 0 573 1780 1806 1728 1660 1835 1841 1830 2045 1969 1793 1993 1569 1566 1518 1445 1083 1267 897 767 750 837 622 634 509 519 648 546
0 0 0 0 0 443 1613 1360 1343 1429 1678 1877 2023 2022 2076 1995 1611 1462 1556 1535 1164 1285 951 1050 997 787 730 606 606 415 367 649
0 0 0 0 0 0 120 1048 1047 1230 1221 1743 2114 1981 2227 2126 1772 1541 1610 1443 1239 1238 1095 928 807 818 789 713 630 477 489 490
0 0 0 0 0 0 0 362 1208 1007 932 1396 2146 2164 2293 2322 1935 1607 1698 1594 1188 1135 1025 838 763 688 753 944 687 532 543 446
0 0 0 0 0 0 0 0 4 921 915 1068 1432 2024 2271 2224 2066 1936 1796 1617 1210 1058 943 878 892 976 783 922 602 592 554 458
0 0 0 0 0 0 0 0 0 0 174 838 1104 1341 1926 2094 1888 1994 1862 1632 1308 1125 864 967 907 1076 898 739 491 428 406 344
0 0 0 0 0 0 0 0 0 0 0 222 776 1189 1564 1851 1852 1746 1892 1716 1417 1144 1068 1023 1141 1168 980 630 490 341 306 410
0 0 0 0 0 0 0 0 0 0 0 0 325 831 1387 1520 1520 1366 1612 1808 1596 1295 1231 1233 1141 1197 1056 830 343 133 43 357
0 0 0 0 0 0 0 0 0 0 0 0 314 480 1152 1373 1329 1140 1075 1425 1543 1426 1191 550 837 901 1079 949 764 422 703 726
0 0 0 0 0 0 0 0 0 0 0 0 110 374 621 1355 1393 1029 899 984 794 800 746 659 923 1084 843 981 919 807 473 464
0 0 0 0 0 0 0 0 19 11 0 0 49 221 192 1056 1318 1132 849 869 1461 1414 1315 1146 1146 870 730 1348 948 876 704 516
0 0 0 0 0 0 0 0 1 11 3 35 50 114 126 402 1174 1192 882 721 738 1131 1364 985 1287 1134 1212 788 1323 542 463 345